GIA55 KIAD-RJAA

Flight info

Callsign GIA55
Flight time N/A
Altitude 34000
Route MCRAY2 MCRAY Q178 DJB DCT FNT DCT TVC DCT AGLIN Q906 OMVEG Q919 YRL DCT 54N100W/N0486F340 58N110W 60N120W 61N130W DCT ALUSO NCA20 ELLAM/N0493F360 DCT NODLE R220 NAYLD/N0483F370 R220 NUZAN/N0493F380 R220 NOGAL/N0479F390 R220 NANAC/N0485F380 Y810 OLDIV Y809 SUPOK
Aircraft B77W/H-SDE1E2E3FGHIJ2J3J4J5M1RWXY/LB1D1

Departure

Time N/A
Airport Washington Dulles International Airport (KIAD)

Arrival

Time 2026-05-08 00:31
Airport Narita International Airport (RJAA)
Time Latitude Longitude Altitude Speed Heading
2026-05-07 13:50 53.92760 -99.82572 33908 ft 456 kts 309°
2026-05-07 13:51 53.94591 -99.86967 33910 ft 456 kts 309°
2026-05-07 13:51 53.98218 -99.95699 33916 ft 455 kts 309°
2026-05-07 13:52 54.02615 -100.05681 33927 ft 454 kts 313°
2026-05-07 13:52 54.06636 -100.13824 33916 ft 454 kts 313°
2026-05-07 13:53 54.10650 -100.22042 33923 ft 453 kts 313°
2026-05-07 13:53 54.13995 -100.28944 33936 ft 451 kts 313°
2026-05-07 13:54 54.18594 -100.38487 33932 ft 450 kts 313°
2026-05-07 13:54 54.21867 -100.45312 33929 ft 449 kts 313°
2026-05-07 13:55 54.25793 -100.53526 33928 ft 449 kts 313°
2026-05-07 13:55 54.30379 -100.63161 33931 ft 448 kts 313°
2026-05-07 13:56 54.33589 -100.69929 33926 ft 448 kts 312°
2026-05-07 13:56 54.37478 -100.78154 33931 ft 447 kts 313°
2026-05-07 13:57 54.41352 -100.86375 33928 ft 445 kts 313°
2026-05-07 13:57 54.45200 -100.94566 33919 ft 446 kts 312°
2026-05-07 13:58 54.49683 -101.04145 33920 ft 445 kts 313°
2026-05-07 13:58 54.52919 -101.11085 33927 ft 445 kts 313°
2026-05-07 13:59 54.57275 -101.20454 33918 ft 445 kts 313°
2026-05-07 13:59 54.60428 -101.27258 33927 ft 445 kts 313°
2026-05-07 14:00 54.63933 -101.34847 33930 ft 444 kts 313°
2026-05-07 14:00 54.68352 -101.44443 33933 ft 444 kts 313°
2026-05-07 14:01 54.71514 -101.51334 33932 ft 443 kts 313°
2026-05-07 14:01 54.75966 -101.61069 33938 ft 442 kts 313°
2026-05-07 14:02 54.79732 -101.69335 33925 ft 442 kts 311°
2026-05-07 14:02 54.82887 -101.76280 33936 ft 443 kts 311°
2026-05-07 14:03 54.86636 -101.84562 33919 ft 439 kts 312°
2026-05-07 14:03 54.90396 -101.92891 33913 ft 441 kts 312°
2026-05-07 14:04 54.94164 -102.01267 33908 ft 441 kts 312°
2026-05-07 14:04 54.98521 -102.10989 33895 ft 442 kts 312°
2026-05-07 14:05 55.01638 -102.17969 33886 ft 442 kts 312°
2026-05-07 14:05 55.05362 -102.26333 33883 ft 439 kts 312°
2026-05-07 14:06 55.09707 -102.36128 33887 ft 441 kts 311°
2026-05-07 14:06 55.13420 -102.44528 33903 ft 440 kts 311°
2026-05-07 14:07 55.17103 -102.52890 33900 ft 441 kts 311°
2026-05-07 14:07 55.20184 -102.59908 33904 ft 440 kts 311°
2026-05-07 14:08 55.24481 -102.69728 33903 ft 441 kts 311°
2026-05-07 14:08 55.27522 -102.76701 33906 ft 441 kts 311°
2026-05-07 14:09 55.31185 -102.85126 33906 ft 440 kts 310°
2026-05-07 14:09 55.35396 -102.94850 33904 ft 442 kts 310°
2026-05-07 14:10 55.38875 -103.02911 33896 ft 443 kts 310°
2026-05-07 14:10 55.41854 -103.09835 33891 ft 442 kts 310°
2026-05-07 14:11 55.45383 -103.18063 33890 ft 442 kts 310°
2026-05-07 14:11 55.49079 -103.26709 33891 ft 443 kts 310°
2026-05-07 14:12 55.52689 -103.35184 33888 ft 445 kts 310°
2026-05-07 14:12 55.56148 -103.43333 33885 ft 443 kts 310°
2026-05-07 14:13 55.62845 -103.59186 33881 ft 444 kts 310°
2026-05-07 14:14 55.66260 -103.67310 33879 ft 445 kts 309°
2026-05-07 14:14 55.69358 -103.74703 33879 ft 445 kts 309°
2026-05-07 14:15 55.72469 -103.82150 33882 ft 446 kts 309°
2026-05-07 14:16 55.78862 -103.97526 33883 ft 446 kts 309°
2026-05-07 14:16 55.82456 -104.06210 33882 ft 447 kts 309°
2026-05-07 14:17 55.86019 -104.14851 33877 ft 448 kts 309°
2026-05-07 14:17 55.89599 -104.23564 33870 ft 449 kts 309°
2026-05-07 14:18 55.93197 -104.32352 33865 ft 449 kts 309°
2026-05-07 14:18 55.96761 -104.41090 33865 ft 449 kts 309°
2026-05-07 14:19 56.00345 -104.49905 33863 ft 449 kts 309°
2026-05-07 14:19 56.03999 -104.58929 33864 ft 451 kts 308°
2026-05-07 14:20 56.07642 -104.67956 33867 ft 451 kts 308°
2026-05-07 14:20 56.11300 -104.77056 33879 ft 452 kts 308°
2026-05-07 14:21 56.14928 -104.86114 33878 ft 452 kts 308°
2026-05-07 14:21 56.18572 -104.95247 33876 ft 452 kts 308°
2026-05-07 14:22 56.22215 -105.04411 33873 ft 453 kts 307°
2026-05-07 14:22 56.25823 -105.13522 33878 ft 454 kts 307°
2026-05-07 14:23 56.29446 -105.22703 33874 ft 454 kts 307°
2026-05-07 14:23 56.33080 -105.31948 33873 ft 455 kts 307°
2026-05-07 14:24 56.36720 -105.41245 33871 ft 456 kts 307°
2026-05-07 14:24 56.40362 -105.50581 33873 ft 456 kts 307°
2026-05-07 14:25 56.43991 -105.59920 33868 ft 456 kts 307°
2026-05-07 14:25 56.47598 -105.69239 33870 ft 457 kts 306°
2026-05-07 14:26 56.51222 -105.78637 33857 ft 458 kts 306°
2026-05-07 14:26 56.54843 -105.88063 33858 ft 458 kts 306°
2026-05-07 14:27 56.58441 -105.97469 33850 ft 460 kts 306°
2026-05-07 14:27 56.62066 -106.06978 33849 ft 461 kts 306°
2026-05-07 14:28 56.65680 -106.16499 33852 ft 460 kts 306°
2026-05-07 14:28 56.69279 -106.26015 33853 ft 460 kts 306°
2026-05-07 14:29 56.72874 -106.35560 33850 ft 461 kts 306°
2026-05-07 14:29 56.76490 -106.45199 33849 ft 461 kts 306°
2026-05-07 14:30 56.80080 -106.54805 33840 ft 461 kts 305°
2026-05-07 14:30 56.83676 -106.64466 33837 ft 462 kts 305°
2026-05-07 14:31 56.87222 -106.74031 33841 ft 463 kts 304°
2026-05-07 14:31 56.90802 -106.83726 33840 ft 464 kts 304°
2026-05-07 14:32 56.94405 -106.93523 33839 ft 464 kts 304°
2026-05-07 14:32 56.97960 -107.03226 33844 ft 466 kts 304°
2026-05-07 14:33 57.01551 -107.13073 33842 ft 465 kts 304°
2026-05-07 14:33 57.05120 -107.22896 33845 ft 465 kts 304°
2026-05-07 14:34 57.08686 -107.32749 33843 ft 465 kts 304°
2026-05-07 14:34 57.11369 -107.40192 33849 ft 465 kts 304°
2026-05-07 14:35 57.13842 -107.47072 33846 ft 466 kts 304°
2026-05-07 14:35 57.17358 -107.56887 33841 ft 465 kts 304°
2026-05-07 14:36 57.20475 -107.65620 33840 ft 467 kts 303°
2026-05-07 14:36 57.24020 -107.75592 33845 ft 467 kts 303°
2026-05-07 14:37 57.27400 -107.85141 33832 ft 468 kts 303°
2026-05-07 14:37 57.32520 -107.99674 33833 ft 468 kts 303°
2026-05-07 14:38 57.35796 -108.09024 33831 ft 467 kts 303°
2026-05-07 14:38 57.39413 -108.19384 33833 ft 467 kts 303°
2026-05-07 14:39 57.42703 -108.28848 33829 ft 468 kts 303°
2026-05-07 14:39 57.46271 -108.39155 33826 ft 467 kts 303°
2026-05-07 14:40 57.49503 -108.48531 33822 ft 468 kts 303°
2026-05-07 14:40 57.52950 -108.58569 33821 ft 468 kts 303°
2026-05-07 14:41 57.56192 -108.68050 33825 ft 468 kts 302°
2026-05-07 14:41 57.59469 -108.77670 33823 ft 469 kts 302°
2026-05-07 14:42 57.63318 -108.89019 33820 ft 469 kts 302°
2026-05-07 14:42 57.66376 -108.98077 33825 ft 470 kts 302°
2026-05-07 14:43 57.69510 -109.07394 33827 ft 470 kts 302°
2026-05-07 14:43 57.72583 -109.16567 33825 ft 469 kts 302°
2026-05-07 14:44 57.75501 -109.25309 33821 ft 469 kts 302°
2026-05-07 14:44 57.78735 -109.35034 33812 ft 469 kts 302°
2026-05-07 14:45 57.82655 -109.46878 33812 ft 469 kts 302°
2026-05-07 14:45 57.86016 -109.57079 33811 ft 469 kts 302°
2026-05-07 14:46 57.88857 -109.65736 33818 ft 470 kts 302°
2026-05-07 14:46 57.92205 -109.75980 33814 ft 470 kts 302°
2026-05-07 14:47 57.95559 -109.86286 33824 ft 470 kts 302°
2026-05-07 14:47 57.98930 -109.96717 33821 ft 471 kts 300°
2026-05-07 14:48 58.02274 -110.09328 33832 ft 471 kts 296°
2026-05-07 14:48 58.04551 -110.18291 33835 ft 470 kts 296°
2026-05-07 14:49 58.07323 -110.29312 33836 ft 470 kts 296°
2026-05-07 14:49 58.10028 -110.40157 33835 ft 469 kts 296°
2026-05-07 14:50 58.13205 -110.52990 33840 ft 468 kts 296°
2026-05-07 14:50 58.14926 -110.59982 33841 ft 469 kts 296°
2026-05-07 14:51 58.18092 -110.72904 33840 ft 470 kts 295°
2026-05-07 14:51 58.20699 -110.83607 33843 ft 469 kts 295°
2026-05-07 14:52 58.23409 -110.94789 33846 ft 469 kts 295°
2026-05-07 14:52 58.26072 -111.05837 33851 ft 469 kts 295°
2026-05-07 14:53 58.28719 -111.16873 33853 ft 470 kts 295°
2026-05-07 14:53 58.31393 -111.28082 33853 ft 470 kts 295°
2026-05-07 14:54 58.34070 -111.39358 33852 ft 469 kts 295°
2026-05-07 14:54 58.36716 -111.50563 33842 ft 470 kts 295°
2026-05-07 14:55 58.39360 -111.61818 33851 ft 471 kts 295°
2026-05-07 14:55 58.42004 -111.73135 33853 ft 470 kts 295°
2026-05-07 14:56 58.44620 -111.84390 33843 ft 469 kts 295°
2026-05-07 14:56 58.47245 -111.95743 33845 ft 469 kts 295°
2026-05-07 14:57 58.49855 -112.07095 33837 ft 469 kts 295°
2026-05-07 14:57 58.52426 -112.18332 33836 ft 470 kts 295°
2026-05-07 14:58 58.55020 -112.29733 33834 ft 470 kts 295°
2026-05-07 14:58 58.57510 -112.40732 33835 ft 470 kts 295°
2026-05-07 14:59 58.60187 -112.52623 33840 ft 470 kts 295°
2026-05-07 14:59 58.62762 -112.64122 33833 ft 469 kts 295°
2026-05-07 15:00 58.65317 -112.75597 33844 ft 468 kts 294°
2026-05-07 15:00 58.67835 -112.86965 33838 ft 468 kts 294°
2026-05-07 15:01 58.70353 -112.98397 33836 ft 468 kts 294°
2026-05-07 15:01 58.72884 -113.09952 33840 ft 468 kts 294°
2026-05-07 15:02 58.75396 -113.21483 33848 ft 467 kts 294°
2026-05-07 15:02 58.77884 -113.32969 33849 ft 467 kts 294°
2026-05-07 15:03 58.80316 -113.44257 33842 ft 466 kts 294°
2026-05-07 15:03 58.82750 -113.55615 33847 ft 466 kts 294°
2026-05-07 15:04 58.85202 -113.67124 33841 ft 465 kts 293°
2026-05-07 15:04 58.87635 -113.78606 33844 ft 465 kts 293°
2026-05-07 15:05 58.90035 -113.89992 33843 ft 465 kts 293°
2026-05-07 15:05 58.92456 -114.01550 33833 ft 464 kts 293°
2026-05-07 15:06 58.94852 -114.13049 33827 ft 463 kts 293°
2026-05-07 15:06 58.97223 -114.24493 33817 ft 462 kts 293°
2026-05-07 15:07 58.99598 -114.36020 33815 ft 462 kts 293°
2026-05-07 15:07 59.01955 -114.47528 33820 ft 461 kts 293°
2026-05-07 15:08 59.04310 -114.59090 33825 ft 460 kts 293°
2026-05-07 15:08 59.06632 -114.70551 33825 ft 460 kts 292°
2026-05-07 15:09 59.08961 -114.82119 33824 ft 461 kts 292°
2026-05-07 15:09 59.11258 -114.93596 33828 ft 459 kts 292°
2026-05-07 15:10 59.13569 -115.05204 33834 ft 459 kts 292°
2026-05-07 15:10 59.15853 -115.16747 33838 ft 459 kts 292°
2026-05-07 15:11 59.18139 -115.28365 33836 ft 459 kts 292°
2026-05-07 15:11 59.20402 -115.39937 33832 ft 459 kts 292°
2026-05-07 15:12 59.22655 -115.51523 33834 ft 459 kts 292°
2026-05-07 15:12 59.24908 -115.63180 33834 ft 458 kts 292°
2026-05-07 15:13 59.27132 -115.74751 33840 ft 457 kts 292°
2026-05-07 15:13 59.29353 -115.86383 33846 ft 458 kts 291°
2026-05-07 15:14 59.31560 -115.98006 33852 ft 457 kts 291°
2026-05-07 15:14 59.33764 -116.09681 33852 ft 459 kts 291°
2026-05-07 15:15 59.35960 -116.21388 33854 ft 459 kts 291°
2026-05-07 15:15 59.38132 -116.33040 33858 ft 459 kts 291°
2026-05-07 15:16 59.40306 -116.44772 33863 ft 458 kts 291°
2026-05-07 15:16 59.42458 -116.56452 33869 ft 459 kts 291°
2026-05-07 15:17 59.44617 -116.68243 33872 ft 458 kts 291°
2026-05-07 15:17 59.46753 -116.79986 33873 ft 459 kts 291°
2026-05-07 15:18 59.48879 -116.91742 33877 ft 458 kts 291°
2026-05-07 15:18 59.50987 -117.03476 33875 ft 458 kts 291°
2026-05-07 15:19 59.53101 -117.15315 33882 ft 459 kts 291°
2026-05-07 15:19 59.55188 -117.27080 33880 ft 458 kts 290°
2026-05-07 15:20 59.57191 -117.38440 33880 ft 458 kts 291°
2026-05-07 15:20 59.59330 -117.50641 33878 ft 457 kts 290°
2026-05-07 15:21 59.61371 -117.62363 33879 ft 456 kts 290°
2026-05-07 15:21 59.63402 -117.74109 33880 ft 457 kts 290°
2026-05-07 15:22 59.65429 -117.85900 33878 ft 456 kts 290°
2026-05-07 15:22 59.67458 -117.97780 33882 ft 455 kts 290°
2026-05-07 15:23 59.69452 -118.09535 33881 ft 456 kts 290°
2026-05-07 15:23 59.71433 -118.21282 33877 ft 455 kts 289°
2026-05-07 15:24 59.73427 -118.33187 33875 ft 455 kts 289°
2026-05-07 15:24 59.75411 -118.45108 33879 ft 455 kts 289°
2026-05-07 15:25 59.77367 -118.56943 33885 ft 454 kts 289°
2026-05-07 15:25 59.79314 -118.68801 33876 ft 453 kts 288°
2026-05-07 15:26 59.81253 -118.80691 33881 ft 454 kts 288°
2026-05-07 15:26 59.83165 -118.92490 33872 ft 454 kts 288°
2026-05-07 15:27 59.85064 -119.04295 33869 ft 453 kts 288°
2026-05-07 15:27 59.86978 -119.16266 33873 ft 453 kts 288°
2026-05-07 15:28 59.88864 -119.28146 33880 ft 454 kts 288°
2026-05-07 15:28 59.90741 -119.40047 33886 ft 452 kts 288°
2026-05-07 15:29 59.92605 -119.51954 33888 ft 453 kts 288°
2026-05-07 15:29 59.94450 -119.63812 33891 ft 452 kts 287°
2026-05-07 15:30 59.96295 -119.75760 33892 ft 453 kts 287°
2026-05-07 15:30 59.98115 -119.87624 33887 ft 452 kts 287°
2026-05-07 15:31 59.99929 -119.99641 33893 ft 453 kts 286°
2026-05-07 15:31 60.01639 -120.11684 33900 ft 451 kts 285°
2026-05-07 15:32 60.03335 -120.23770 33893 ft 451 kts 285°
2026-05-07 15:32 60.04996 -120.35708 33877 ft 450 kts 285°
2026-05-07 15:33 60.06663 -120.47793 33881 ft 452 kts 285°
2026-05-07 15:33 60.08316 -120.59868 33883 ft 452 kts 285°
2026-05-07 15:34 60.09957 -120.71948 33876 ft 452 kts 284°
2026-05-07 15:34 60.11591 -120.84072 33881 ft 453 kts 284°
2026-05-07 15:35 60.13217 -120.96240 33890 ft 452 kts 284°
2026-05-07 15:35 60.14835 -121.08435 33901 ft 453 kts 284°
2026-05-07 15:36 60.16439 -121.20621 33877 ft 453 kts 284°
2026-05-07 15:36 60.18032 -121.32825 33861 ft 452 kts 284°
2026-05-07 15:37 60.19575 -121.44735 33883 ft 452 kts 284°
2026-05-07 15:37 60.21148 -121.56980 33897 ft 452 kts 284°
2026-05-07 15:38 60.22641 -121.68689 33888 ft 451 kts 283°
2026-05-07 15:38 60.24219 -121.81171 33898 ft 452 kts 283°
2026-05-07 15:39 60.25698 -121.92965 33889 ft 453 kts 283°
2026-05-07 15:39 60.27193 -122.04981 33899 ft 451 kts 283°
2026-05-07 15:40 60.28699 -122.17189 33889 ft 451 kts 283°
2026-05-07 15:40 60.30177 -122.29268 33883 ft 451 kts 283°
2026-05-07 15:41 60.31661 -122.41495 33884 ft 451 kts 283°
2026-05-07 15:41 60.33109 -122.53535 33891 ft 450 kts 283°
2026-05-07 15:42 60.34569 -122.65771 33899 ft 451 kts 282°
2026-05-07 15:42 60.35963 -122.77558 33919 ft 452 kts 282°
2026-05-07 15:43 60.37397 -122.89786 33911 ft 451 kts 282°
2026-05-07 15:43 60.38832 -123.02131 33919 ft 453 kts 282°
2026-05-07 15:44 60.40229 -123.14250 33903 ft 451 kts 282°
2026-05-07 15:44 60.41495 -123.25326 33917 ft 453 kts 282°
2026-05-07 15:45 60.42944 -123.38121 33928 ft 451 kts 282°
2026-05-07 15:45 60.43929 -123.46882 33929 ft 453 kts 282°
2026-05-07 15:46 60.45985 -123.65365 33921 ft 452 kts 281°
2026-05-07 15:47 60.47310 -123.77406 33905 ft 451 kts 282°
2026-05-07 15:47 60.48647 -123.89668 33900 ft 453 kts 282°
2026-05-07 15:48 60.49942 -124.01654 33911 ft 452 kts 282°
2026-05-07 15:48 60.51257 -124.13948 33902 ft 453 kts 281°
2026-05-07 15:49 60.52529 -124.25938 33867 ft 452 kts 282°
2026-05-07 15:49 60.53749 -124.37551 33861 ft 452 kts 282°
2026-05-07 15:50 60.54910 -124.48698 33858 ft 453 kts 281°
2026-05-07 15:50 60.56300 -124.62180 33862 ft 452 kts 282°
2026-05-07 15:51 60.57545 -124.74378 33881 ft 454 kts 281°
2026-05-07 15:51 60.58803 -124.86813 33890 ft 454 kts 281°
2026-05-07 15:52 60.59938 -124.98155 33882 ft 454 kts 281°
2026-05-07 15:52 60.61155 -125.10418 33850 ft 455 kts 281°
2026-05-07 15:53 60.62390 -125.22996 33884 ft 455 kts 281°
2026-05-07 15:53 60.63502 -125.34440 33918 ft 453 kts 281°
2026-05-07 15:54 60.64845 -125.48402 33892 ft 454 kts 281°
2026-05-07 15:54 60.66042 -125.60986 33902 ft 453 kts 281°
2026-05-07 15:55 60.67222 -125.73522 33909 ft 455 kts 280°
2026-05-07 15:55 60.68387 -125.86035 33905 ft 454 kts 280°
2026-05-07 15:56 60.69524 -125.98377 33873 ft 454 kts 280°
2026-05-07 15:56 60.70679 -126.11053 33904 ft 454 kts 280°
2026-05-07 15:57 60.71777 -126.23227 33908 ft 454 kts 280°
2026-05-07 15:57 60.72901 -126.35830 33904 ft 454 kts 280°
2026-05-07 15:58 60.73921 -126.47401 33898 ft 454 kts 280°
2026-05-07 15:58 60.74977 -126.59499 33878 ft 454 kts 280°
2026-05-07 15:59 60.76028 -126.71680 33926 ft 454 kts 279°
2026-05-07 15:59 60.77107 -126.84324 33927 ft 454 kts 279°
2026-05-07 16:00 60.78164 -126.96858 33915 ft 453 kts 279°
2026-05-07 16:00 60.79216 -127.09489 33930 ft 454 kts 279°
2026-05-07 16:01 60.80242 -127.21942 33932 ft 452 kts 279°
2026-05-07 16:01 60.81263 -127.34490 33942 ft 454 kts 279°
2026-05-07 16:02 60.82283 -127.47182 33947 ft 454 kts 279°
2026-05-07 16:02 60.83291 -127.59883 33926 ft 454 kts 279°
2026-05-07 16:03 60.84266 -127.72311 33953 ft 454 kts 279°
2026-05-07 16:03 60.85258 -127.85136 33955 ft 454 kts 279°
2026-05-07 16:04 60.86215 -127.97652 33932 ft 455 kts 279°
2026-05-07 16:04 60.87175 -128.10368 33916 ft 454 kts 279°
2026-05-07 16:05 60.88121 -128.23073 33909 ft 453 kts 279°
2026-05-07 16:05 60.89056 -128.35805 33926 ft 455 kts 279°
2026-05-07 16:06 60.89972 -128.48436 33973 ft 454 kts 279°
2026-05-07 16:06 60.90876 -128.61089 33977 ft 454 kts 279°
2026-05-07 16:07 60.91779 -128.73886 33978 ft 455 kts 278°
2026-05-07 16:07 60.92663 -128.86597 33966 ft 453 kts 278°
2026-05-07 16:08 60.93535 -128.99310 33990 ft 452 kts 278°
2026-05-07 16:08 60.94394 -129.12033 34000 ft 452 kts 278°
2026-05-07 16:09 60.95217 -129.24390 34013 ft 451 kts 278°
2026-05-07 16:09 60.96057 -129.37167 34025 ft 453 kts 278°
2026-05-07 16:10 60.96869 -129.49719 34004 ft 452 kts 278°
2026-05-07 16:10 60.97665 -129.62230 33989 ft 451 kts 278°
2026-05-07 16:11 60.98427 -129.74362 34006 ft 452 kts 277°
2026-05-07 16:11 60.99227 -129.87309 33987 ft 451 kts 277°
2026-05-07 16:12 61.00016 -130.00006 33946 ft 450 kts 278°
2026-05-07 16:12 61.00906 -130.12639 33926 ft 449 kts 278°
2026-05-07 16:13 61.01795 -130.25293 33918 ft 450 kts 278°
2026-05-07 16:13 61.02674 -130.37975 33919 ft 449 kts 278°
2026-05-07 16:14 61.03547 -130.50723 33927 ft 450 kts 278°
2026-05-07 16:14 61.04401 -130.63382 33947 ft 448 kts 278°
2026-05-07 16:15 61.05234 -130.75917 33993 ft 451 kts 277°
2026-05-07 16:15 61.06071 -130.88681 33997 ft 449 kts 277°
2026-05-07 16:16 61.06876 -131.01147 33977 ft 447 kts 277°
2026-05-07 16:16 61.07676 -131.13730 33982 ft 448 kts 277°
2026-05-07 16:17 61.08468 -131.26369 34012 ft 447 kts 277°
2026-05-07 16:17 61.09238 -131.38853 34009 ft 447 kts 277°
2026-05-07 16:18 61.10005 -131.51485 33986 ft 447 kts 277°
2026-05-07 16:18 61.10754 -131.64003 33975 ft 447 kts 277°
2026-05-07 16:19 61.11484 -131.76419 33976 ft 447 kts 276°
2026-05-07 16:19 61.12222 -131.89177 33991 ft 447 kts 276°
2026-05-07 16:20 61.12928 -132.01579 33992 ft 447 kts 276°
2026-05-07 16:20 61.13629 -132.14101 33992 ft 446 kts 276°
2026-05-07 16:21 61.14316 -132.26576 34009 ft 446 kts 276°
2026-05-07 16:21 61.15004 -132.39307 33996 ft 448 kts 276°
2026-05-07 16:22 61.15674 -132.51920 34005 ft 449 kts 276°
2026-05-07 16:22 61.16333 -132.64561 34014 ft 450 kts 276°
2026-05-07 16:23 61.16968 -132.76953 34000 ft 449 kts 275°
2026-05-07 16:23 61.17601 -132.89546 34003 ft 450 kts 275°
2026-05-07 16:24 61.18230 -133.02289 34025 ft 448 kts 275°
2026-05-07 16:24 61.18844 -133.14992 34038 ft 449 kts 275°
2026-05-07 16:25 61.19447 -133.27712 34039 ft 448 kts 275°
2026-05-07 16:25 61.20041 -133.40489 34024 ft 448 kts 275°
2026-05-07 16:26 61.20616 -133.53142 34001 ft 447 kts 275°
2026-05-07 16:26 61.21169 -133.65532 33973 ft 446 kts 274°
2026-05-07 16:27 61.21714 -133.78027 33974 ft 447 kts 274°
2026-05-07 16:27 61.22257 -133.90736 33968 ft 444 kts 274°
2026-05-07 16:28 61.22752 -134.02597 33973 ft 446 kts 274°
2026-05-07 16:28 61.23288 -134.15726 34020 ft 446 kts 274°
2026-05-07 16:29 61.23798 -134.28526 34057 ft 447 kts 274°
2026-05-07 16:29 61.24285 -134.41026 34064 ft 446 kts 274°
2026-05-07 16:30 61.24764 -134.53639 34059 ft 446 kts 274°
2026-05-07 16:30 61.25237 -134.66419 34051 ft 446 kts 273°
2026-05-07 16:31 61.25698 -134.79181 34057 ft 446 kts 273°
2026-05-07 16:31 61.26142 -134.91809 34033 ft 446 kts 273°
2026-05-07 16:32 61.26547 -135.03645 34023 ft 445 kts 273°
2026-05-07 16:32 61.26973 -135.16414 34030 ft 445 kts 273°
2026-05-07 16:33 61.27385 -135.29167 34054 ft 446 kts 273°
2026-05-07 16:33 61.27788 -135.42003 34053 ft 446 kts 273°
2026-05-07 16:34 61.28179 -135.54805 34048 ft 446 kts 273°
2026-05-07 16:34 61.28554 -135.67531 34030 ft 447 kts 272°
2026-05-07 16:35 61.28919 -135.80254 34035 ft 444 kts 272°
2026-05-07 16:35 61.29273 -135.93086 34046 ft 447 kts 272°
2026-05-07 16:36 61.29613 -136.05843 34056 ft 445 kts 272°
2026-05-07 16:36 61.29924 -136.17888 34058 ft 445 kts 272°
2026-05-07 16:37 61.30237 -136.30479 34059 ft 445 kts 272°
2026-05-07 16:37 61.30543 -136.43249 34039 ft 445 kts 272°
2026-05-07 16:38 61.30833 -136.55879 34000 ft 446 kts 272°
2026-05-07 16:38 61.31112 -136.68523 34001 ft 446 kts 271°
2026-05-07 16:39 61.31384 -136.81427 33999 ft 446 kts 271°
2026-05-07 16:39 61.31640 -136.94113 34014 ft 446 kts 271°
2026-05-07 16:40 61.31879 -137.06535 34013 ft 446 kts 271°
2026-05-07 16:40 61.32103 -137.18729 33987 ft 447 kts 271°
2026-05-07 16:41 61.32322 -137.31297 33985 ft 446 kts 271°
2026-05-07 16:41 61.32527 -137.43727 33992 ft 447 kts 271°
2026-05-07 16:42 61.32728 -137.56636 33987 ft 447 kts 271°
2026-05-07 16:42 61.32903 -137.68527 33978 ft 447 kts 270°
2026-05-07 16:43 61.33064 -137.80267 33930 ft 446 kts 270°
2026-05-07 16:43 61.33229 -137.93091 33919 ft 447 kts 270°
2026-05-07 16:44 61.33382 -138.05908 33912 ft 447 kts 270°
2026-05-07 16:44 61.33520 -138.18394 33938 ft 448 kts 270°
2026-05-07 16:45 61.33651 -138.31447 33923 ft 448 kts 270°
2026-05-07 16:45 61.33762 -138.43491 33968 ft 446 kts 270°
2026-05-07 16:46 61.33859 -138.55202 33996 ft 448 kts 270°
2026-05-07 16:46 61.33946 -138.66980 34033 ft 448 kts 269°
2026-05-07 16:47 61.33964 -138.69592 34041 ft 447 kts 269°
2026-05-07 16:48 61.34045 -138.82483 34058 ft 448 kts 269°
2026-05-07 16:48 61.34113 -138.95149 34048 ft 450 kts 269°
2026-05-07 16:49 61.34169 -139.07555 34031 ft 450 kts 269°
2026-05-07 16:49 61.34214 -139.20439 34058 ft 448 kts 269°
2026-05-07 16:50 61.34248 -139.33366 34061 ft 449 kts 269°
2026-05-07 16:50 61.34268 -139.45721 34044 ft 450 kts 269°
2026-05-07 16:51 61.34277 -139.58739 34002 ft 450 kts 269°
2026-05-07 16:51 61.34274 -139.71468 34056 ft 449 kts 269°
2026-05-07 16:52 61.34259 -139.84250 34045 ft 452 kts 268°
2026-05-07 16:52 61.34232 -139.97250 33997 ft 450 kts 268°
2026-05-07 16:53 61.34193 -140.09967 33999 ft 451 kts 268°
2026-05-07 16:53 61.34141 -140.22984 34027 ft 451 kts 268°
2026-05-07 16:54 61.34087 -140.35913 33990 ft 452 kts 268°
2026-05-07 16:54 61.34020 -140.48933 33901 ft 450 kts 268°
2026-05-07 16:55 61.33942 -140.61792 33850 ft 449 kts 268°
2026-05-07 16:55 61.33850 -140.74797 33846 ft 451 kts 267°
2026-05-07 16:56 61.33747 -140.87813 33867 ft 448 kts 267°
2026-05-07 16:56 61.33717 -141.06978 33885 ft 451 kts 271°
2026-05-07 16:57 61.34137 -141.20012 33864 ft 451 kts 272°
2026-05-07 16:57 61.34523 -141.32997 33854 ft 452 kts 271°
2026-05-07 16:58 61.34872 -141.45709 33843 ft 453 kts 271°
2026-05-07 16:58 61.35209 -141.58713 33839 ft 452 kts 271°
2026-05-07 16:59 61.35531 -141.71790 33851 ft 453 kts 270°
2026-05-07 16:59 61.35836 -141.84781 33870 ft 452 kts 270°
2026-05-07 17:00 61.36120 -141.97438 33896 ft 454 kts 270°
2026-05-07 17:00 61.36396 -142.10301 33927 ft 454 kts 270°
2026-05-07 17:01 61.36670 -142.23666 33943 ft 455 kts 270°
2026-05-07 17:01 61.36926 -142.36812 33964 ft 454 kts 270°
2026-05-07 17:02 61.37164 -142.49670 33974 ft 456 kts 270°
2026-05-07 17:02 61.37392 -142.62624 34009 ft 454 kts 270°
2026-05-07 17:03 61.37610 -142.75742 34054 ft 455 kts 269°
2026-05-07 17:03 61.37816 -142.88919 34088 ft 456 kts 269°
2026-05-07 17:04 61.38009 -143.02080 34117 ft 456 kts 269°
2026-05-07 17:04 61.38189 -143.15222 34119 ft 457 kts 269°
2026-05-07 17:05 61.38358 -143.28421 34111 ft 458 kts 269°
2026-05-07 17:05 61.38512 -143.41538 34079 ft 457 kts 269°
2026-05-07 17:06 61.38654 -143.54710 34055 ft 459 kts 269°
2026-05-07 17:06 61.38783 -143.67784 34075 ft 458 kts 268°
2026-05-07 17:07 61.38901 -143.81100 34076 ft 457 kts 269°
2026-05-07 17:07 61.39006 -143.94389 34122 ft 459 kts 268°
2026-05-07 17:08 61.39098 -144.07602 34122 ft 458 kts 269°
2026-05-07 17:08 61.39177 -144.20914 34139 ft 459 kts 269°
2026-05-07 17:09 61.39242 -144.34111 34136 ft 460 kts 269°
2026-05-07 17:09 61.39296 -144.47478 34111 ft 459 kts 269°
2026-05-07 17:10 61.39336 -144.60738 34060 ft 460 kts 269°
2026-05-07 17:10 61.39363 -144.73637 34009 ft 460 kts 268°
2026-05-07 17:11 61.39378 -144.86887 33979 ft 459 kts 268°
2026-05-07 17:11 61.39379 -145.00145 34024 ft 460 kts 268°
2026-05-07 17:12 61.39426 -145.13036 34034 ft 461 kts 269°
2026-05-07 17:12 61.39588 -145.26353 34052 ft 462 kts 269°
2026-05-07 17:13 61.39733 -145.39696 34020 ft 462 kts 270°
2026-05-07 17:13 61.39859 -145.52975 33978 ft 462 kts 269°
2026-05-07 17:14 61.39971 -145.66363 33979 ft 463 kts 269°
2026-05-07 17:14 61.40067 -145.79617 34005 ft 464 kts 268°
2026-05-07 17:15 61.40149 -145.92694 34005 ft 464 kts 269°
2026-05-07 17:15 61.40218 -146.05804 34028 ft 464 kts 269°
2026-05-07 17:16 61.40275 -146.19104 34012 ft 465 kts 269°
2026-05-07 17:16 61.40319 -146.32414 33993 ft 465 kts 269°
2026-05-07 17:17 61.40350 -146.45573 33973 ft 465 kts 269°
2026-05-07 17:17 61.40367 -146.58502 33958 ft 464 kts 269°
2026-05-07 17:18 61.40373 -146.71780 33944 ft 465 kts 268°
2026-05-07 17:18 61.40365 -146.85143 33920 ft 465 kts 268°
2026-05-07 17:19 61.40344 -146.98502 33920 ft 465 kts 268°
2026-05-07 17:19 61.40311 -147.11696 33890 ft 467 kts 268°
2026-05-07 17:20 61.40264 -147.25244 33846 ft 466 kts 268°
2026-05-07 17:20 61.40204 -147.38580 33826 ft 465 kts 268°
2026-05-07 17:21 61.40132 -147.51659 33829 ft 466 kts 268°
2026-05-07 17:21 61.40046 -147.65056 33868 ft 466 kts 267°
2026-05-07 17:22 61.39835 -147.91789 33907 ft 467 kts 267°
2026-05-07 17:23 61.39709 -148.05211 33857 ft 467 kts 267°
2026-05-07 17:23 61.39569 -148.18727 33907 ft 468 kts 267°
2026-05-07 17:24 61.39417 -148.32163 33939 ft 468 kts 267°
2026-05-07 17:24 61.39249 -148.45711 33997 ft 468 kts 267°
2026-05-07 17:25 61.39069 -148.59238 34035 ft 469 kts 267°
2026-05-07 17:25 61.38877 -148.72617 34055 ft 467 kts 266°
2026-05-07 17:26 61.38670 -148.86127 34049 ft 469 kts 266°
2026-05-07 17:26 61.38450 -148.99623 34037 ft 469 kts 266°
2026-05-07 17:27 61.38213 -149.13286 34029 ft 469 kts 266°
2026-05-07 17:27 61.37970 -149.26578 34067 ft 469 kts 266°
2026-05-07 17:28 61.37686 -149.40117 34069 ft 470 kts 265°
2026-05-07 17:28 61.37317 -149.53644 34059 ft 469 kts 265°
2026-05-07 17:29 61.36934 -149.67230 34074 ft 469 kts 265°
2026-05-07 17:29 61.36548 -149.80536 34099 ft 470 kts 265°
2026-05-07 17:30 61.36155 -149.93709 34102 ft 470 kts 265°
2026-05-07 17:30 61.35739 -150.07196 34086 ft 469 kts 265°
2026-05-07 17:31 61.35319 -150.20415 34099 ft 470 kts 265°
2026-05-07 17:31 61.34874 -150.34029 34086 ft 470 kts 265°
2026-05-07 17:32 61.34415 -150.47623 34078 ft 472 kts 265°
2026-05-07 17:32 61.34023 -150.58919 34076 ft 472 kts 265°
2026-05-07 17:33 61.33467 -150.74528 34055 ft 471 kts 264°
2026-05-07 17:33 61.32966 -150.88161 34051 ft 472 kts 264°
2026-05-07 17:34 61.32456 -151.01662 34054 ft 472 kts 264°
2026-05-07 17:34 61.31932 -151.15167 34059 ft 472 kts 264°
2026-05-07 17:35 61.31407 -151.28374 34049 ft 473 kts 264°
2026-05-07 17:35 61.30850 -151.42050 34043 ft 474 kts 265°
2026-05-07 17:36 61.30312 -151.54936 34012 ft 473 kts 265°
2026-05-07 17:36 61.29709 -151.69040 34009 ft 474 kts 264°
2026-05-07 17:37 61.29111 -151.82684 33991 ft 474 kts 264°
2026-05-07 17:37 61.28503 -151.96258 34003 ft 473 kts 264°
2026-05-07 17:38 61.28198 -152.09862 33993 ft 475 kts 270°
2026-05-07 17:38 61.28357 -152.23598 33973 ft 474 kts 270°
2026-05-07 17:39 61.28464 -152.37294 33924 ft 475 kts 270°
2026-05-07 17:39 61.28534 -152.50880 33890 ft 475 kts 270°
2026-05-07 17:40 61.28576 -152.64133 33899 ft 474 kts 270°
2026-05-07 17:40 61.28599 -152.77788 33938 ft 474 kts 269°
2026-05-07 17:41 61.28605 -152.91333 33926 ft 474 kts 269°
2026-05-07 17:41 61.28595 -153.05028 33940 ft 474 kts 269°
2026-05-07 17:42 61.28571 -153.18710 33914 ft 475 kts 270°
2026-05-07 17:42 61.28533 -153.32422 33877 ft 475 kts 270°
2026-05-07 17:43 61.28480 -153.46118 33898 ft 474 kts 270°
2026-05-07 17:43 61.28414 -153.59706 33896 ft 474 kts 270°
2026-05-07 17:44 61.28334 -153.73418 33952 ft 473 kts 269°
2026-05-07 17:44 61.28240 -153.87079 33991 ft 476 kts 269°
2026-05-07 17:45 61.28132 -154.00738 33902 ft 474 kts 269°
2026-05-07 17:45 61.28011 -154.14415 33891 ft 475 kts 269°
2026-05-07 17:46 61.27875 -154.28128 33863 ft 476 kts 269°
2026-05-07 17:46 61.27726 -154.41817 33913 ft 476 kts 269°
2026-05-07 17:47 61.27563 -154.55513 34006 ft 477 kts 269°
2026-05-07 17:47 61.27385 -154.69255 34036 ft 478 kts 269°
2026-05-07 17:48 61.27194 -154.83009 34034 ft 477 kts 269°
2026-05-07 17:48 61.26989 -154.96712 34056 ft 476 kts 269°
2026-05-07 17:49 61.26770 -155.10448 34060 ft 477 kts 269°
2026-05-07 17:49 61.26537 -155.24142 34037 ft 476 kts 269°
2026-05-07 17:50 61.26291 -155.37845 34045 ft 476 kts 269°
2026-05-07 17:50 61.26031 -155.51541 34050 ft 476 kts 269°
2026-05-07 17:51 61.25755 -155.65315 34059 ft 477 kts 268°
2026-05-07 17:51 61.25468 -155.78976 34061 ft 478 kts 268°
2026-05-07 17:52 61.25165 -155.92735 34075 ft 478 kts 268°
2026-05-07 17:52 61.24945 -156.06480 34044 ft 477 kts 272°
2026-05-07 17:53 61.25062 -156.20187 34029 ft 476 kts 272°
2026-05-07 17:53 61.25156 -156.33975 34077 ft 476 kts 272°
2026-05-07 17:54 61.25223 -156.47623 34046 ft 475 kts 272°
2026-05-07 17:54 61.25269 -156.61320 34080 ft 477 kts 272°
2026-05-07 17:55 61.25296 -156.75003 34080 ft 477 kts 271°
2026-05-07 17:55 61.25309 -156.88773 34078 ft 476 kts 271°
2026-05-07 17:56 61.25306 -157.02490 34078 ft 476 kts 271°
2026-05-07 17:56 61.25290 -157.16267 34456 ft 483 kts 271°
2026-05-07 17:57 61.25276 -157.23193 34966 ft 479 kts 271°
2026-05-07 17:57 61.25264 -157.27858 35290 ft 477 kts 271°
2026-05-07 17:57 61.25237 -157.36974 35783 ft 477 kts 271°
2026-05-07 17:57 61.25213 -157.43829 35999 ft 480 kts 271°
2026-05-07 17:58 61.25153 -157.57730 36049 ft 480 kts 271°
2026-05-07 17:58 61.25079 -157.71545 36057 ft 479 kts 271°
2026-05-07 17:59 61.24992 -157.85292 36049 ft 480 kts 271°
2026-05-07 17:59 61.24890 -157.99097 36004 ft 479 kts 271°
2026-05-07 18:00 61.24774 -158.12947 35999 ft 480 kts 271°
2026-05-07 18:00 61.24645 -158.26689 36019 ft 480 kts 271°
2026-05-07 18:01 61.24501 -158.40477 36012 ft 480 kts 271°
2026-05-07 18:01 61.24343 -158.54289 35994 ft 479 kts 271°
2026-05-07 18:02 61.24079 -158.75023 36054 ft 479 kts 271°
2026-05-07 18:03 61.23887 -158.88783 36067 ft 478 kts 271°
2026-05-07 18:03 61.23682 -159.02499 36080 ft 478 kts 271°
2026-05-07 18:04 61.23462 -159.16238 36097 ft 478 kts 271°
2026-05-07 18:04 61.23228 -159.29964 36115 ft 477 kts 271°
2026-05-07 18:05 61.22980 -159.43730 36109 ft 478 kts 271°
2026-05-07 18:05 61.22720 -159.57346 36082 ft 477 kts 271°
2026-05-07 18:06 61.22445 -159.71095 36085 ft 478 kts 270°
2026-05-07 18:06 61.22156 -159.84776 36089 ft 478 kts 271°
2026-05-07 18:07 61.21853 -159.98523 36093 ft 478 kts 271°
2026-05-07 18:07 61.21537 -160.12203 36073 ft 478 kts 271°
2026-05-07 18:08 61.21207 -160.25917 36095 ft 479 kts 271°
2026-05-07 18:08 61.20862 -160.39632 36097 ft 478 kts 271°
2026-05-07 18:09 61.20504 -160.53340 36102 ft 479 kts 271°
2026-05-07 18:09 61.20132 -160.67032 36100 ft 478 kts 270°
2026-05-07 18:10 61.19743 -160.80835 36097 ft 479 kts 270°
2026-05-07 18:10 61.19344 -160.94505 36103 ft 479 kts 270°
2026-05-07 18:11 61.18929 -161.08235 36106 ft 480 kts 270°
2026-05-07 18:11 61.18502 -161.21913 36117 ft 480 kts 270°
2026-05-07 18:12 61.18058 -161.35673 36110 ft 481 kts 270°
2026-05-07 18:12 61.17601 -161.49402 36113 ft 480 kts 270°
2026-05-07 18:13 61.17130 -161.63127 36115 ft 480 kts 270°
2026-05-07 18:13 61.16645 -161.76868 36130 ft 480 kts 269°
2026-05-07 18:14 61.16148 -161.90546 36130 ft 480 kts 269°
2026-05-07 18:14 61.15631 -162.04395 36124 ft 482 kts 269°
2026-05-07 18:15 61.15102 -162.18149 36112 ft 482 kts 269°
2026-05-07 18:15 61.14558 -162.31957 36120 ft 484 kts 269°
2026-05-07 18:16 61.14000 -162.45738 36126 ft 483 kts 269°
2026-05-07 18:16 61.13430 -162.59479 36113 ft 482 kts 269°
2026-05-07 18:17 61.12845 -162.73247 36116 ft 483 kts 268°
2026-05-07 18:17 61.12248 -162.86937 36123 ft 483 kts 268°
2026-05-07 18:18 61.11348 -163.00687 36129 ft 488 kts 260°
2026-05-07 18:18 61.09594 -163.14214 36124 ft 490 kts 258°
2026-05-07 18:19 61.07759 -163.27699 36125 ft 490 kts 258°
2026-05-07 18:19 61.05894 -163.41133 36137 ft 491 kts 258°
2026-05-07 18:20 61.03991 -163.54631 36137 ft 490 kts 258°
2026-05-07 18:20 61.02083 -163.68015 36139 ft 491 kts 257°
2026-05-07 18:21 61.00177 -163.81250 36148 ft 490 kts 257°
2026-05-07 18:21 60.98224 -163.94691 36147 ft 492 kts 257°
2026-05-07 18:22 60.96255 -164.08130 36148 ft 492 kts 257°
2026-05-07 18:22 60.94273 -164.21541 36148 ft 493 kts 257°
2026-05-07 18:23 60.92276 -164.34953 36147 ft 493 kts 257°
2026-05-07 18:23 60.90261 -164.48373 36155 ft 493 kts 257°
2026-05-07 18:24 60.88240 -164.61723 36147 ft 493 kts 257°
2026-05-07 18:24 60.86195 -164.75133 36135 ft 495 kts 257°
2026-05-07 18:25 60.84126 -164.88586 36132 ft 495 kts 256°
2026-05-07 18:25 60.82052 -165.01978 36144 ft 496 kts 256°
2026-05-07 18:25 60.81015 -165.08626 35846 ft 495 kts 256°
2026-05-07 18:26 60.79967 -165.15320 35992 ft 494 kts 256°
2026-05-07 18:26 60.78916 -165.22017 36130 ft 497 kts 256°
2026-05-07 18:26 60.77867 -165.28668 36152 ft 499 kts 256°
2026-05-07 18:27 60.75731 -165.42137 36149 ft 498 kts 256°
2026-05-07 18:27 60.73603 -165.55450 36152 ft 498 kts 256°
2026-05-07 18:28 60.71441 -165.68880 36157 ft 498 kts 255°
2026-05-07 18:28 60.69257 -165.82340 36161 ft 500 kts 256°
2026-05-07 18:29 60.67063 -165.95764 36159 ft 500 kts 255°
2026-05-07 18:29 60.64864 -166.09120 36154 ft 499 kts 255°
2026-05-07 18:30 60.62651 -166.22453 36154 ft 499 kts 256°
2026-05-07 18:30 60.60418 -166.35823 36154 ft 500 kts 255°
2026-05-07 18:31 60.58178 -166.49127 36158 ft 500 kts 255°
2026-05-07 18:31 60.55929 -166.62390 36154 ft 501 kts 255°
2026-05-07 18:32 60.53653 -166.75716 36159 ft 501 kts 254°
2026-05-07 18:32 60.51366 -166.89004 36158 ft 501 kts 254°
2026-05-07 18:33 60.49049 -167.02376 36159 ft 501 kts 254°
2026-05-07 18:33 60.46747 -167.15569 36160 ft 502 kts 254°
2026-05-07 18:34 60.44417 -167.28821 36163 ft 502 kts 254°
2026-05-07 18:34 60.42059 -167.42145 36164 ft 503 kts 254°
2026-05-07 18:35 60.39701 -167.55376 36165 ft 504 kts 254°
2026-05-07 18:35 60.37322 -167.68625 36170 ft 503 kts 253°
2026-05-07 18:36 60.34943 -167.81786 36165 ft 503 kts 253°
2026-05-07 18:36 60.32541 -167.94978 36167 ft 503 kts 253°
2026-05-07 18:37 60.30125 -168.08197 36167 ft 504 kts 253°
2026-05-07 18:37 60.27753 -168.21416 36169 ft 504 kts 253°
2026-05-07 18:38 60.25377 -168.34578 36167 ft 504 kts 253°
2026-05-07 18:38 60.22966 -168.47821 36166 ft 503 kts 253°
2026-05-07 18:39 60.20567 -168.60907 36167 ft 503 kts 253°
2026-05-07 18:39 60.18136 -168.74074 36169 ft 504 kts 252°
2026-05-07 18:40 60.15699 -168.87184 36163 ft 504 kts 252°
2026-05-07 18:40 60.13246 -169.00284 36164 ft 504 kts 252°
2026-05-07 18:41 60.10775 -169.13396 36166 ft 504 kts 252°
2026-05-07 18:41 60.08295 -169.26466 36166 ft 503 kts 252°
2026-05-07 18:42 60.05809 -169.39476 36164 ft 502 kts 251°
2026-05-07 18:42 60.03318 -169.52432 36169 ft 503 kts 251°
2026-05-07 18:43 60.00794 -169.65472 36163 ft 504 kts 250°
2026-05-07 18:43 59.98266 -169.78448 36167 ft 504 kts 250°
2026-05-07 18:44 59.95718 -169.91441 36160 ft 504 kts 250°
2026-05-07 18:44 59.93170 -170.04344 36168 ft 503 kts 250°
2026-05-07 18:45 59.90603 -170.17265 36163 ft 503 kts 250°
2026-05-07 18:45 59.88019 -170.30185 36155 ft 504 kts 250°
2026-05-07 18:46 59.85428 -170.43057 36151 ft 504 kts 250°
2026-05-07 18:46 59.82822 -170.55927 36166 ft 505 kts 250°
2026-05-07 18:47 59.80197 -170.68800 36147 ft 505 kts 250°
2026-05-07 18:47 59.77551 -170.81697 36154 ft 506 kts 250°
2026-05-07 18:48 59.74891 -170.94582 36148 ft 506 kts 250°
2026-05-07 18:48 59.72231 -171.07382 36150 ft 507 kts 250°
2026-05-07 18:49 59.69553 -171.20193 36149 ft 507 kts 249°
2026-05-07 18:49 59.66840 -171.33090 36147 ft 508 kts 249°
2026-05-07 18:50 59.64137 -171.45857 36138 ft 508 kts 249°
2026-05-07 18:50 59.61399 -171.58711 36139 ft 509 kts 249°
2026-05-07 18:51 59.58646 -171.71553 36144 ft 509 kts 248°
2026-05-07 18:51 59.55901 -171.84280 36143 ft 509 kts 248°
2026-05-07 18:52 59.53167 -171.97159 36138 ft 509 kts 250°
2026-05-07 18:52 59.50558 -172.10048 36148 ft 510 kts 250°
2026-05-07 18:53 59.47935 -172.22897 36154 ft 509 kts 250°
2026-05-07 18:53 59.45293 -172.35733 36142 ft 509 kts 250°
2026-05-07 18:54 59.42634 -172.48558 36149 ft 509 kts 249°
2026-05-07 18:54 59.39968 -172.61327 36147 ft 508 kts 249°
2026-05-07 18:55 59.37273 -172.74153 36146 ft 509 kts 248°
2026-05-07 18:55 59.34580 -172.86891 36152 ft 510 kts 248°
2026-05-07 18:56 59.31865 -172.99646 36137 ft 510 kts 248°
2026-05-07 18:56 59.29151 -173.12320 36133 ft 509 kts 248°
2026-05-07 18:57 59.26401 -173.25087 36134 ft 509 kts 248°
2026-05-07 18:57 59.23659 -173.37735 36141 ft 508 kts 248°
2026-05-07 18:58 59.20914 -173.50317 36134 ft 508 kts 248°
2026-05-07 18:58 59.18136 -173.62978 36153 ft 508 kts 248°
2026-05-07 18:59 59.15352 -173.75591 36129 ft 509 kts 246°
2026-05-07 18:59 59.12540 -173.88251 36140 ft 509 kts 246°
2026-05-07 19:00 59.09737 -174.00800 36143 ft 509 kts 246°
2026-05-07 19:00 59.06932 -174.13275 36147 ft 508 kts 246°
2026-05-07 19:01 59.04119 -174.25835 36135 ft 507 kts 247°
2026-05-07 19:01 59.01393 -174.38415 36139 ft 508 kts 247°
2026-05-07 19:02 58.98651 -174.50992 36139 ft 507 kts 247°
2026-05-07 19:02 58.95896 -174.63536 36136 ft 506 kts 247°
2026-05-07 19:03 58.93149 -174.75963 36138 ft 507 kts 246°
2026-05-07 19:03 58.90378 -174.88420 36136 ft 507 kts 246°
2026-05-07 19:04 58.87573 -175.00952 36136 ft 506 kts 246°
2026-05-07 19:04 58.84788 -175.13313 36128 ft 505 kts 246°
2026-05-07 19:05 58.81978 -175.25722 36126 ft 506 kts 246°
2026-05-07 19:05 58.79184 -175.37981 36120 ft 505 kts 246°
2026-05-07 19:06 58.76347 -175.50359 36115 ft 505 kts 246°
2026-05-07 19:06 58.72098 -175.68767 36119 ft 505 kts 245°
2026-05-07 19:07 58.69244 -175.81043 36109 ft 503 kts 245°
2026-05-07 19:07 58.66389 -175.93249 36119 ft 502 kts 245°
2026-05-07 19:08 58.63531 -176.05402 36113 ft 503 kts 245°
2026-05-07 19:08 58.60668 -176.17509 36104 ft 503 kts 245°
2026-05-07 19:09 58.57770 -176.29694 36109 ft 503 kts 245°
2026-05-07 19:09 58.54870 -176.41818 36108 ft 503 kts 245°
2026-05-07 19:10 58.51958 -176.53928 36099 ft 502 kts 245°
2026-05-07 19:10 58.49045 -176.65973 36101 ft 503 kts 244°
2026-05-07 19:11 58.46113 -176.78029 36093 ft 502 kts 244°
2026-05-07 19:11 58.43177 -176.90034 36092 ft 502 kts 244°
2026-05-07 19:12 58.40223 -177.02046 36091 ft 502 kts 243°
2026-05-07 19:12 58.37260 -177.14040 36092 ft 501 kts 243°
2026-05-07 19:13 58.34316 -177.25946 36088 ft 502 kts 243°
2026-05-07 19:13 58.31341 -177.37912 36088 ft 501 kts 243°
2026-05-07 19:14 58.28364 -177.49818 36090 ft 501 kts 243°
2026-05-07 19:14 58.25364 -177.61754 36089 ft 501 kts 243°
2026-05-07 19:15 58.22375 -177.73579 36086 ft 500 kts 242°
2026-05-07 19:15 58.19374 -177.85393 36084 ft 500 kts 242°
2026-05-07 19:16 58.16343 -177.97257 36088 ft 500 kts 242°
2026-05-07 19:16 58.13335 -178.08968 36075 ft 499 kts 242°
2026-05-07 19:17 58.10352 -178.20525 36071 ft 499 kts 242°
2026-05-07 19:17 58.07299 -178.32288 36066 ft 500 kts 242°
2026-05-07 19:18 58.04252 -178.43970 36063 ft 500 kts 241°
2026-05-07 19:18 58.01165 -178.55739 36057 ft 500 kts 241°
2026-05-07 19:19 57.98101 -178.67363 36051 ft 500 kts 240°
2026-05-07 19:19 57.95008 -178.79036 36054 ft 500 kts 240°
2026-05-07 19:20 57.91910 -178.90669 36039 ft 499 kts 240°
2026-05-07 19:20 57.88791 -179.02318 36049 ft 500 kts 240°
2026-05-07 19:21 57.85661 -179.13947 36046 ft 500 kts 240°
2026-05-07 19:21 57.82582 -179.25331 36043 ft 500 kts 240°
2026-05-07 19:22 57.79396 -179.37051 36040 ft 501 kts 239°
2026-05-07 19:22 57.76236 -179.48614 36038 ft 501 kts 239°
2026-05-07 19:23 57.73061 -179.60176 36030 ft 500 kts 238°
2026-05-07 19:23 57.69879 -179.71703 36017 ft 500 kts 238°
2026-05-07 19:24 57.66700 -179.83164 36019 ft 500 kts 238°
2026-05-07 19:24 57.63521 -179.94565 36015 ft 499 kts 238°
2026-05-07 19:25 57.60303 179.93953 36014 ft 500 kts 238°
2026-05-07 19:25 57.57098 179.82573 36010 ft 500 kts 238°
2026-05-07 19:26 57.53867 179.71155 35995 ft 501 kts 238°
2026-05-07 19:26 57.50606 179.59691 35999 ft 501 kts 238°
2026-05-07 19:27 57.47369 179.48367 36003 ft 501 kts 238°
2026-05-07 19:27 57.44105 179.37003 36000 ft 501 kts 238°
2026-05-07 19:28 57.40823 179.25632 35997 ft 501 kts 237°
2026-05-07 19:28 57.37544 179.14325 35991 ft 501 kts 237°
2026-05-07 19:29 57.34235 179.02975 35991 ft 502 kts 236°
2026-05-07 19:29 57.30942 178.91733 35979 ft 501 kts 236°
2026-05-07 19:30 57.27616 178.80434 35983 ft 502 kts 236°
2026-05-07 19:30 57.24289 178.69185 35989 ft 501 kts 236°
2026-05-07 19:31 57.20968 178.58011 35982 ft 501 kts 236°
2026-05-07 19:31 57.17630 178.46831 35973 ft 500 kts 236°
2026-05-07 19:32 57.14264 178.35614 35964 ft 501 kts 236°
2026-05-07 19:32 57.10907 178.24475 35954 ft 499 kts 235°
2026-05-07 19:33 57.07561 178.13432 35949 ft 499 kts 235°
2026-05-07 19:33 57.04176 178.02307 35947 ft 499 kts 235°
2026-05-07 19:34 57.00804 177.91281 35937 ft 500 kts 235°
2026-05-07 19:34 56.97407 177.80225 35945 ft 500 kts 235°
2026-05-07 19:35 56.94017 177.69240 35938 ft 500 kts 235°
2026-05-07 19:35 56.90599 177.58223 35946 ft 501 kts 235°
2026-05-07 19:36 56.87166 177.47203 35944 ft 501 kts 235°
2026-05-07 19:36 56.85458 177.41736 36127 ft 499 kts 235°
2026-05-07 19:36 56.83741 177.36256 35983 ft 497 kts 235°
2026-05-07 19:37 56.80325 177.25429 35945 ft 498 kts 233°
2026-05-07 19:37 56.76869 177.14554 35934 ft 499 kts 234°
2026-05-07 19:38 56.73403 177.03688 35933 ft 499 kts 233°
2026-05-07 19:38 56.69922 176.92827 35919 ft 500 kts 234°
2026-05-07 19:39 56.66413 176.81928 35909 ft 500 kts 234°
2026-05-07 19:39 56.63510 176.72946 35915 ft 501 kts 234°
2026-05-07 19:40 56.59391 176.60261 35892 ft 501 kts 234°
2026-05-07 19:40 56.55857 176.49431 35911 ft 503 kts 234°
2026-05-07 19:41 56.52327 176.38660 35901 ft 500 kts 234°
2026-05-07 19:41 56.48777 176.27879 35893 ft 500 kts 233°
2026-05-07 19:42 56.45241 176.17189 35902 ft 503 kts 233°
2026-05-07 19:42 56.41661 176.06412 35902 ft 502 kts 233°
2026-05-07 19:43 56.38078 175.95676 35882 ft 500 kts 233°
2026-05-07 19:43 56.34484 175.84953 35919 ft 503 kts 234°
2026-05-07 19:44 56.30882 175.74255 35902 ft 502 kts 234°
2026-05-07 19:44 56.27280 175.63606 35898 ft 502 kts 234°
2026-05-07 19:45 56.23649 175.52916 35885 ft 502 kts 234°
2026-05-07 19:45 56.20019 175.42278 35889 ft 502 kts 234°
2026-05-07 19:46 56.16380 175.31661 35886 ft 502 kts 233°
2026-05-07 19:46 56.12750 175.21114 35889 ft 501 kts 234°
2026-05-07 19:47 56.09097 175.10547 35873 ft 500 kts 234°
2026-05-07 19:47 56.05444 175.00027 35882 ft 500 kts 234°
2026-05-07 19:48 56.01769 174.89491 35877 ft 502 kts 234°
2026-05-07 19:48 55.98111 174.79045 35862 ft 501 kts 234°
2026-05-07 19:49 55.94409 174.68523 35855 ft 502 kts 234°
2026-05-07 19:49 55.90723 174.58089 35860 ft 502 kts 234°
2026-05-07 19:50 55.87004 174.47607 35868 ft 501 kts 234°
2026-05-07 19:50 55.83294 174.37198 35872 ft 502 kts 234°
2026-05-07 19:51 55.79570 174.26791 35856 ft 501 kts 234°
2026-05-07 19:51 55.75836 174.16402 35858 ft 501 kts 234°
2026-05-07 19:52 55.72104 174.06061 35861 ft 501 kts 234°
2026-05-07 19:52 55.68335 173.95662 35855 ft 500 kts 234°
2026-05-07 19:53 55.64604 173.85414 35860 ft 500 kts 234°
2026-05-07 19:53 55.60830 173.75089 35853 ft 501 kts 234°
2026-05-07 19:54 55.57049 173.64789 35850 ft 500 kts 234°
2026-05-07 19:54 55.53281 173.54568 35850 ft 499 kts 234°
2026-05-07 19:55 55.49519 173.44403 35852 ft 499 kts 234°
2026-05-07 19:55 55.45713 173.34164 35845 ft 499 kts 234°
2026-05-07 19:56 55.41933 173.24039 35847 ft 498 kts 234°
2026-05-07 19:56 55.38149 173.13942 35843 ft 499 kts 234°
2026-05-07 19:57 55.34336 173.03812 35844 ft 498 kts 234°
2026-05-07 19:57 55.30510 172.93686 35841 ft 498 kts 234°
2026-05-07 19:58 55.26691 172.83623 35841 ft 498 kts 234°
2026-05-07 19:58 55.22927 172.73743 35838 ft 498 kts 234°
2026-05-07 19:59 55.19085 172.63698 35834 ft 498 kts 234°
2026-05-07 19:59 55.15236 172.53677 35835 ft 498 kts 234°
2026-05-07 20:00 55.11385 172.43690 35829 ft 497 kts 234°
2026-05-07 20:00 55.07523 172.33717 35826 ft 497 kts 234°
2026-05-07 20:01 55.03674 172.23819 35827 ft 497 kts 234°
2026-05-07 20:01 54.99801 172.13898 35827 ft 497 kts 234°
2026-05-07 20:02 54.95921 172.03996 35819 ft 497 kts 234°
2026-05-07 20:02 54.91830 171.94345 35823 ft 496 kts 230°
2026-05-07 20:03 54.87511 171.85133 35826 ft 496 kts 229°
2026-05-07 20:03 54.83145 171.75890 35827 ft 495 kts 230°
2026-05-07 20:04 54.78820 171.66779 35824 ft 494 kts 230°
2026-05-07 20:04 54.74444 171.57599 35821 ft 494 kts 230°
2026-05-07 20:05 54.70081 171.48486 35821 ft 494 kts 230°
2026-05-07 20:05 54.65707 171.39384 35822 ft 494 kts 230°
2026-05-07 20:06 54.61338 171.30331 35817 ft 494 kts 229°
2026-05-07 20:06 54.56959 171.21287 35814 ft 494 kts 229°
2026-05-07 20:07 54.52553 171.12224 35814 ft 493 kts 229°
2026-05-07 20:07 54.48181 171.03261 35812 ft 494 kts 229°
2026-05-07 20:08 54.43758 170.94229 35817 ft 494 kts 229°
2026-05-07 20:08 54.39357 170.85274 35817 ft 493 kts 229°
2026-05-07 20:09 54.34965 170.76372 35811 ft 493 kts 230°
2026-05-07 20:10 54.28332 170.62985 35805 ft 492 kts 230°
2026-05-07 20:10 54.23930 170.54143 35809 ft 492 kts 230°
2026-05-07 20:11 54.19490 170.45254 35810 ft 490 kts 230°
2026-05-07 20:11 54.15079 170.36458 35809 ft 491 kts 230°
2026-05-07 20:12 54.10664 170.27684 35810 ft 490 kts 229°
2026-05-07 20:12 54.06236 170.18915 35816 ft 491 kts 229°
2026-05-07 20:13 54.01794 170.10150 35824 ft 491 kts 229°
2026-05-07 20:13 53.97345 170.01402 35824 ft 491 kts 229°
2026-05-07 20:14 53.92892 169.92679 35823 ft 490 kts 229°
2026-05-07 20:14 53.88450 169.84006 35822 ft 489 kts 229°
2026-05-07 20:15 53.84016 169.75380 35823 ft 488 kts 229°
2026-05-07 20:15 53.79549 169.66721 35821 ft 488 kts 230°
2026-05-07 20:16 53.75119 169.58162 35817 ft 488 kts 230°
2026-05-07 20:16 53.70654 169.49567 35812 ft 487 kts 230°
2026-05-07 20:17 53.66216 169.41054 35808 ft 487 kts 230°
2026-05-07 20:17 53.61996 169.32188 35808 ft 486 kts 239°
2026-05-07 20:18 53.58856 169.22479 35809 ft 485 kts 242°
2026-05-07 20:18 53.55703 169.12517 35808 ft 484 kts 242°
2026-05-07 20:19 53.52546 169.02635 35808 ft 483 kts 242°
2026-05-07 20:19 53.49381 168.92796 35805 ft 484 kts 242°
2026-05-07 20:20 53.46162 168.82849 35803 ft 482 kts 242°
2026-05-07 20:20 53.42970 168.73032 35800 ft 483 kts 242°
2026-05-07 20:21 53.39757 168.63194 35797 ft 482 kts 242°
2026-05-07 20:21 53.36553 168.53427 35793 ft 482 kts 242°
2026-05-07 20:22 53.33327 168.43631 35793 ft 482 kts 242°
2026-05-07 20:22 53.30100 168.33874 35788 ft 481 kts 242°
2026-05-07 20:23 53.26854 168.24126 35789 ft 481 kts 242°
2026-05-07 20:23 53.23623 168.14468 35792 ft 479 kts 242°
2026-05-07 20:24 53.20386 168.04828 35786 ft 479 kts 242°
2026-05-07 20:24 53.17139 167.95197 35786 ft 479 kts 242°
2026-05-07 20:25 53.13875 167.85551 35786 ft 479 kts 242°
2026-05-07 20:25 53.10621 167.75972 35791 ft 478 kts 242°
2026-05-07 20:26 53.07357 167.66402 35790 ft 478 kts 242°
2026-05-07 20:26 53.04069 167.56801 35786 ft 477 kts 242°
2026-05-07 20:27 53.00804 167.47299 35794 ft 478 kts 242°
2026-05-07 20:27 52.97517 167.37772 35795 ft 475 kts 242°
2026-05-07 20:28 52.94220 167.28250 35802 ft 477 kts 241°
2026-05-07 20:28 52.90950 167.18846 35792 ft 474 kts 242°
2026-05-07 20:29 52.87647 167.09380 35788 ft 474 kts 242°
2026-05-07 20:29 52.84366 167.00014 35785 ft 475 kts 242°
2026-05-07 20:30 52.81074 166.90652 35786 ft 473 kts 242°
2026-05-07 20:30 52.77769 166.81287 35787 ft 472 kts 242°
2026-05-07 20:31 52.74481 166.72006 35785 ft 471 kts 242°
2026-05-07 20:31 52.71181 166.62726 35794 ft 472 kts 242°
2026-05-07 20:32 52.67877 166.53467 35779 ft 469 kts 242°
2026-05-07 20:32 52.64591 166.44295 35777 ft 470 kts 242°
2026-05-07 20:33 52.61253 166.35010 35772 ft 468 kts 242°
2026-05-07 20:33 52.57952 166.25862 35787 ft 467 kts 241°
2026-05-07 20:34 52.54664 166.16783 35780 ft 466 kts 241°
2026-05-07 20:34 52.51335 166.07625 35776 ft 466 kts 241°
2026-05-07 20:35 52.48042 165.98595 35782 ft 465 kts 242°
2026-05-07 20:35 52.44713 165.89504 35779 ft 466 kts 242°
2026-05-07 20:36 52.41385 165.80444 35767 ft 464 kts 242°
2026-05-07 20:36 52.38067 165.71446 35773 ft 464 kts 242°
2026-05-07 20:37 52.34737 165.62448 35774 ft 463 kts 242°
2026-05-07 20:37 52.31421 165.53519 35772 ft 462 kts 242°
2026-05-07 20:38 52.28079 165.44553 35779 ft 461 kts 242°
2026-05-07 20:38 52.24748 165.35646 35777 ft 462 kts 242°
2026-05-07 20:39 52.21422 165.26785 35789 ft 460 kts 241°
2026-05-07 20:39 52.18090 165.17938 35786 ft 460 kts 241°
2026-05-07 20:40 52.14749 165.09097 35785 ft 460 kts 242°
2026-05-07 20:40 52.11408 165.00287 35794 ft 458 kts 242°
2026-05-07 20:41 52.08077 164.91534 35792 ft 457 kts 242°
2026-05-07 20:41 52.04747 164.82814 35792 ft 457 kts 242°
2026-05-07 20:42 52.01406 164.74097 35791 ft 454 kts 242°
2026-05-07 20:42 51.98081 164.65446 35784 ft 457 kts 242°
2026-05-07 20:43 51.94721 164.56738 35790 ft 455 kts 242°
2026-05-07 20:43 51.91381 164.48109 35788 ft 455 kts 242°
2026-05-07 20:44 51.88052 164.39542 35790 ft 452 kts 242°
2026-05-07 20:44 51.84700 164.30940 35786 ft 452 kts 241°
2026-05-07 20:45 51.81354 164.22380 35795 ft 451 kts 241°
2026-05-07 20:45 51.78013 164.13867 35801 ft 449 kts 242°
2026-05-07 20:46 51.74667 164.05366 35797 ft 447 kts 241°
2026-05-07 20:46 51.71352 163.96974 35807 ft 447 kts 242°
2026-05-07 20:47 51.68013 163.88545 35791 ft 449 kts 242°
2026-05-07 20:47 51.64670 163.80136 35785 ft 446 kts 242°
2026-05-07 20:48 51.61348 163.71805 35782 ft 447 kts 242°
2026-05-07 20:48 51.57992 163.63419 35792 ft 445 kts 242°
2026-05-07 20:49 51.54670 163.55142 35782 ft 443 kts 242°
2026-05-07 20:49 51.51342 163.46875 35791 ft 442 kts 242°
2026-05-07 20:50 51.48003 163.38608 35787 ft 441 kts 242°
2026-05-07 20:50 51.44666 163.30373 35819 ft 442 kts 241°
2026-05-07 20:51 51.41312 163.22122 35824 ft 442 kts 241°
2026-05-07 20:51 51.37987 163.13969 35820 ft 439 kts 242°
2026-05-07 20:52 51.34658 163.05832 35819 ft 439 kts 242°
2026-05-07 20:52 51.31325 162.97708 35808 ft 440 kts 242°
2026-05-07 20:53 51.27972 162.89565 35807 ft 439 kts 242°
2026-05-07 20:53 51.24656 162.81535 35800 ft 436 kts 242°
2026-05-07 20:54 51.21310 162.73457 35799 ft 435 kts 242°
2026-05-07 20:54 51.17978 162.65440 35805 ft 434 kts 242°
2026-05-07 20:55 51.14656 162.57469 35790 ft 432 kts 242°
2026-05-07 20:55 51.11335 162.49524 35800 ft 434 kts 242°
2026-05-07 20:56 51.08009 162.41595 35801 ft 431 kts 242°
2026-05-07 20:56 51.04694 162.33714 35803 ft 430 kts 241°
2026-05-07 20:57 51.01371 162.25838 35802 ft 430 kts 241°
2026-05-07 20:57 50.98035 162.17953 35812 ft 431 kts 242°
2026-05-07 20:58 50.94696 162.10089 35816 ft 430 kts 242°
2026-05-07 20:58 50.91367 162.02272 35810 ft 427 kts 242°
2026-05-07 20:59 50.88060 161.94527 35821 ft 429 kts 242°
2026-05-07 20:59 50.84740 161.86777 35796 ft 427 kts 242°
2026-05-07 21:00 50.81411 161.79024 35804 ft 426 kts 242°
2026-05-07 21:00 50.78090 161.71317 35807 ft 427 kts 242°
2026-05-07 21:01 50.74782 161.63663 35810 ft 424 kts 242°
2026-05-07 21:01 50.71448 161.55971 35802 ft 422 kts 242°
2026-05-07 21:02 50.68158 161.48401 35798 ft 423 kts 242°
2026-05-07 21:02 50.64845 161.40802 35814 ft 419 kts 242°
2026-05-07 21:03 50.61564 161.33298 35814 ft 421 kts 242°
2026-05-07 21:03 50.58231 161.25694 35810 ft 418 kts 242°
2026-05-07 21:04 50.54931 161.18187 35830 ft 420 kts 241°
2026-05-07 21:04 50.51620 161.10681 35825 ft 416 kts 242°
2026-05-07 21:05 50.48358 161.03304 35824 ft 416 kts 242°
2026-05-07 21:05 50.45069 160.95888 35814 ft 416 kts 242°
2026-05-07 21:06 50.41774 160.88478 35833 ft 414 kts 242°
2026-05-07 21:06 50.38473 160.81078 35820 ft 415 kts 242°
2026-05-07 21:07 50.35163 160.73674 35811 ft 416 kts 242°
2026-05-07 21:07 50.31889 160.66376 35812 ft 414 kts 242°
2026-05-07 21:08 50.28572 160.59003 35806 ft 410 kts 242°
2026-05-07 21:08 50.25297 160.51737 35800 ft 412 kts 242°
2026-05-07 21:09 50.22002 160.44449 35817 ft 413 kts 242°
2026-05-07 21:09 50.18740 160.37264 35811 ft 409 kts 242°
2026-05-07 21:10 50.15453 160.30069 35823 ft 410 kts 241°
2026-05-07 21:10 50.12195 160.22963 35844 ft 407 kts 242°
2026-05-07 21:11 50.08872 160.15727 35825 ft 410 kts 242°
2026-05-07 21:11 50.03930 160.05014 35830 ft 405 kts 242°
2026-05-07 21:12 50.00660 159.97943 35818 ft 403 kts 242°
2026-05-07 21:12 49.97374 159.90852 35833 ft 408 kts 242°
2026-05-07 21:13 49.94081 159.83775 35572 ft 403 kts 241°
2026-05-07 21:13 49.92448 159.80272 35810 ft 403 kts 242°
2026-05-07 21:13 49.90798 159.76730 35815 ft 410 kts 242°
2026-05-07 21:14 49.87479 159.69635 35808 ft 404 kts 242°
2026-05-07 21:14 49.84174 159.62585 35821 ft 405 kts 242°
2026-05-07 21:15 49.80892 159.55605 35797 ft 402 kts 242°
2026-05-07 21:15 49.77591 159.48596 35823 ft 406 kts 242°
2026-05-07 21:16 49.74326 159.41692 35815 ft 399 kts 242°
2026-05-07 21:16 49.71040 159.34752 35804 ft 399 kts 242°
2026-05-07 21:17 49.67682 159.27850 35822 ft 404 kts 241°
2026-05-07 21:17 49.64348 159.21065 35834 ft 398 kts 241°
2026-05-07 21:18 49.61013 159.14278 35831 ft 398 kts 241°
2026-05-07 21:18 49.57667 159.07484 35807 ft 401 kts 241°
2026-05-07 21:19 49.54337 159.00746 35831 ft 399 kts 241°
2026-05-07 21:19 49.50996 158.94000 35800 ft 392 kts 241°
2026-05-07 21:20 49.47695 158.87344 35819 ft 397 kts 241°
2026-05-07 21:20 49.44361 158.80643 35847 ft 394 kts 241°
2026-05-07 21:21 49.41049 158.74002 35817 ft 395 kts 242°
2026-05-07 21:21 49.37715 158.67333 35825 ft 392 kts 241°
2026-05-07 21:22 49.34429 158.60779 35840 ft 391 kts 242°
2026-05-07 21:22 49.31118 158.54189 35826 ft 393 kts 242°
2026-05-07 21:23 49.27831 158.47664 35783 ft 387 kts 241°
2026-05-07 21:23 49.24534 158.41130 35822 ft 391 kts 241°
2026-05-07 21:24 49.21253 158.34651 35826 ft 388 kts 240°
2026-05-07 21:24 49.17944 158.28130 35860 ft 388 kts 240°
2026-05-07 21:25 49.14632 158.21619 35847 ft 387 kts 241°
2026-05-07 21:25 49.11354 158.15192 35847 ft 383 kts 240°
2026-05-07 21:26 49.08054 158.08730 35847 ft 390 kts 240°
2026-05-07 21:26 49.04752 158.02289 35843 ft 384 kts 241°
2026-05-07 21:27 49.01494 157.95944 35846 ft 385 kts 240°
2026-05-07 21:27 48.98201 157.89551 35842 ft 381 kts 240°
2026-05-07 21:28 48.94918 157.83183 35844 ft 386 kts 240°
2026-05-07 21:28 48.91632 157.76836 35842 ft 383 kts 241°
2026-05-07 21:29 48.88340 157.70485 35844 ft 383 kts 241°
2026-05-07 21:29 48.85064 157.64182 35839 ft 383 kts 241°
2026-05-07 21:30 48.81752 157.57823 35836 ft 385 kts 241°
2026-05-07 21:30 48.78437 157.51479 35839 ft 383 kts 240°
2026-05-07 21:31 48.75140 157.45177 35831 ft 386 kts 240°
2026-05-07 21:31 48.71816 157.38843 35823 ft 384 kts 240°
2026-05-07 21:32 48.68480 157.32498 35847 ft 387 kts 240°
2026-05-07 21:32 48.65141 157.26166 35851 ft 386 kts 240°
2026-05-07 21:33 48.61805 157.19852 35849 ft 386 kts 240°
2026-05-07 21:33 48.58478 157.13574 35843 ft 383 kts 240°
2026-05-07 21:34 48.55126 157.07257 35837 ft 386 kts 240°
2026-05-07 21:34 48.51786 157.00980 35842 ft 387 kts 239°
2026-05-07 21:35 48.48439 156.94708 35838 ft 386 kts 240°
2026-05-07 21:35 48.45068 156.88400 35837 ft 387 kts 239°
2026-05-07 21:36 48.41709 156.82134 35836 ft 386 kts 240°
2026-05-07 21:36 48.38343 156.75867 35835 ft 387 kts 239°
2026-05-07 21:37 48.34967 156.69598 35835 ft 386 kts 239°
2026-05-07 21:37 48.31592 156.63344 35837 ft 386 kts 240°
2026-05-07 21:38 48.28200 156.57074 35830 ft 387 kts 240°
2026-05-07 21:38 48.24822 156.50844 35831 ft 386 kts 240°
2026-05-07 21:39 48.21426 156.44594 35832 ft 389 kts 240°
2026-05-07 21:39 48.18044 156.38390 35830 ft 383 kts 239°
2026-05-07 21:40 48.14664 156.32193 35857 ft 387 kts 239°
2026-05-07 21:40 48.11260 156.25974 35853 ft 387 kts 239°
2026-05-07 21:41 48.07882 156.19817 35857 ft 386 kts 239°
2026-05-07 21:41 48.04454 156.13579 35868 ft 388 kts 239°
2026-05-07 21:42 48.01065 156.07430 35868 ft 388 kts 239°
2026-05-07 21:42 47.97640 156.01228 35866 ft 388 kts 238°
2026-05-07 21:43 47.94218 155.95048 35866 ft 387 kts 239°
2026-05-07 21:43 47.90802 155.88890 35862 ft 387 kts 238°
2026-05-07 21:44 47.87383 155.82744 35864 ft 385 kts 239°
2026-05-07 21:44 47.83977 155.76630 35867 ft 387 kts 239°
2026-05-07 21:45 47.80545 155.70488 35864 ft 387 kts 239°
2026-05-07 21:45 47.77114 155.64362 35864 ft 385 kts 239°
2026-05-07 21:46 47.73695 155.58267 35864 ft 387 kts 238°
2026-05-07 21:46 47.70255 155.52150 35866 ft 387 kts 238°
2026-05-07 21:47 47.66826 155.46069 35859 ft 385 kts 238°
2026-05-07 21:47 47.63400 155.40004 35858 ft 386 kts 239°
2026-05-07 21:48 47.59952 155.33914 35870 ft 388 kts 238°
2026-05-07 21:48 47.56483 155.27803 35886 ft 387 kts 238°
2026-05-07 21:49 47.53020 155.21715 35888 ft 388 kts 238°
2026-05-07 21:49 47.49554 155.15634 35891 ft 387 kts 238°
2026-05-07 21:50 47.46101 155.09592 35889 ft 388 kts 238°
2026-05-07 21:50 47.42636 155.03543 35888 ft 386 kts 238°
2026-05-07 21:51 47.40900 155.00516 36064 ft 387 kts 238°
2026-05-07 21:51 47.39165 154.97493 35889 ft 385 kts 237°
2026-05-07 21:51 47.35739 154.91536 35888 ft 387 kts 238°
2026-05-07 21:52 47.33987 154.88495 35620 ft 386 kts 237°
2026-05-07 21:52 47.32260 154.85506 36086 ft 383 kts 238°
2026-05-07 21:52 47.30546 154.82532 35903 ft 389 kts 237°
2026-05-07 21:52 47.28796 154.79507 35751 ft 382 kts 237°
2026-05-07 21:53 47.27074 154.76532 36060 ft 386 kts 237°
2026-05-07 21:53 47.25341 154.73540 35881 ft 384 kts 237°
2026-05-07 21:53 47.21891 154.67595 35880 ft 386 kts 237°
2026-05-07 21:54 47.18420 154.61627 35880 ft 386 kts 238°
2026-05-07 21:54 47.14948 154.55670 35883 ft 384 kts 237°
2026-05-07 21:55 47.11476 154.49725 35883 ft 386 kts 238°
2026-05-07 21:55 47.07977 154.43751 35878 ft 384 kts 237°
2026-05-07 21:56 47.04505 154.37834 35878 ft 385 kts 237°
2026-05-07 21:56 47.01030 154.31921 35900 ft 387 kts 237°
2026-05-07 21:57 46.97540 154.26000 35894 ft 386 kts 237°
2026-05-07 21:57 46.94016 154.20032 35892 ft 388 kts 237°
2026-05-07 21:58 46.90523 154.14134 35886 ft 385 kts 236°
2026-05-07 21:58 46.86998 154.08188 35893 ft 387 kts 237°
2026-05-07 21:59 46.83515 154.02331 35892 ft 385 kts 236°
2026-05-07 21:59 46.80013 153.96451 35888 ft 387 kts 237°
2026-05-07 22:00 46.76490 153.90552 35887 ft 387 kts 236°
2026-05-07 22:00 46.72960 153.84651 35886 ft 387 kts 236°
2026-05-07 22:01 46.69437 153.78777 35885 ft 386 kts 236°
2026-05-07 22:01 46.65887 153.72865 35884 ft 388 kts 236°
2026-05-07 22:02 46.62359 153.67009 35883 ft 389 kts 236°
2026-05-07 22:02 46.58825 153.61154 35877 ft 385 kts 236°
2026-05-07 22:03 46.55294 153.55315 35879 ft 387 kts 236°
2026-05-07 22:03 46.51757 153.49481 35876 ft 386 kts 236°
2026-05-07 22:04 46.48222 153.43660 35872 ft 386 kts 236°
2026-05-07 22:04 46.44694 153.37866 35873 ft 385 kts 236°
2026-05-07 22:05 46.41128 153.32019 35898 ft 387 kts 235°
2026-05-07 22:05 46.37584 153.26221 35898 ft 387 kts 235°
2026-05-07 22:06 46.34037 153.20432 35902 ft 386 kts 235°
2026-05-07 22:06 46.30456 153.14598 35908 ft 388 kts 235°
2026-05-07 22:07 46.26902 153.08823 35906 ft 387 kts 235°
2026-05-07 22:07 46.23326 153.03021 35904 ft 386 kts 235°
2026-05-07 22:08 46.19748 152.97266 35903 ft 388 kts 234°
2026-05-07 22:08 46.16163 152.91540 35905 ft 385 kts 234°
2026-05-07 22:09 46.12558 152.85794 35901 ft 386 kts 234°
2026-05-07 22:09 46.08986 152.80115 35901 ft 386 kts 235°
2026-05-07 22:10 46.05393 152.74412 35903 ft 386 kts 234°
2026-05-07 22:10 46.01791 152.68707 35897 ft 386 kts 234°
2026-05-07 22:11 45.98198 152.63028 35894 ft 385 kts 234°
2026-05-07 22:11 45.94598 152.57352 35895 ft 386 kts 234°
2026-05-07 22:12 45.90997 152.51683 35894 ft 386 kts 234°
2026-05-07 22:12 45.87369 152.45985 35898 ft 386 kts 234°
2026-05-07 22:13 45.83733 152.40286 35897 ft 388 kts 234°
2026-05-07 22:13 45.80108 152.34618 35901 ft 386 kts 233°
2026-05-07 22:14 45.76498 152.28984 35919 ft 388 kts 233°
2026-05-07 22:14 45.72847 152.23297 35914 ft 386 kts 233°
2026-05-07 22:15 45.69224 152.17665 35907 ft 389 kts 233°
2026-05-07 22:15 45.65621 152.12077 35896 ft 388 kts 233°
2026-05-07 22:16 45.61976 152.06435 35894 ft 389 kts 233°
2026-05-07 22:16 45.58305 152.00763 35891 ft 389 kts 233°
2026-05-07 22:17 45.54637 151.95111 35888 ft 389 kts 233°
2026-05-07 22:17 45.50958 151.89449 35887 ft 391 kts 233°
2026-05-07 22:18 45.45481 151.81045 35884 ft 389 kts 233°
2026-05-07 22:19 45.41793 151.75400 35883 ft 390 kts 233°
2026-05-07 22:19 45.38115 151.69785 35883 ft 389 kts 233°
2026-05-07 22:20 45.34413 151.64140 35878 ft 391 kts 233°
2026-05-07 22:20 45.30713 151.58513 35880 ft 392 kts 233°
2026-05-07 22:21 45.27018 151.52904 35875 ft 391 kts 233°
2026-05-07 22:21 45.23307 151.47281 35874 ft 392 kts 233°
2026-05-07 22:22 45.19565 151.41625 35874 ft 393 kts 233°
2026-05-07 22:22 45.15830 151.35989 35873 ft 392 kts 233°
2026-05-07 22:23 45.12095 151.30366 35894 ft 394 kts 232°
2026-05-07 22:23 45.08342 151.24728 35893 ft 392 kts 232°
2026-05-07 22:24 45.04613 151.19136 35893 ft 394 kts 232°
2026-05-07 22:24 45.00862 151.13524 35892 ft 394 kts 232°
2026-05-07 22:25 44.97096 151.07899 35887 ft 395 kts 232°
2026-05-07 22:25 44.93352 151.02319 35884 ft 397 kts 232°
2026-05-07 22:26 44.89567 150.96692 35880 ft 394 kts 232°
2026-05-07 22:26 44.85772 150.91057 35885 ft 397 kts 232°
2026-05-07 22:27 44.81995 150.85465 35882 ft 396 kts 232°
2026-05-07 22:27 44.78191 150.79842 35881 ft 397 kts 232°
2026-05-07 22:28 44.74420 150.74280 35876 ft 396 kts 232°
2026-05-07 22:28 44.70616 150.68678 35876 ft 397 kts 232°
2026-05-07 22:29 44.66804 150.63080 35872 ft 396 kts 232°
2026-05-07 22:29 44.62979 150.57469 35865 ft 399 kts 232°
2026-05-07 22:30 44.59154 150.51874 35862 ft 396 kts 232°
2026-05-07 22:30 44.55364 150.46338 35863 ft 399 kts 231°
2026-05-07 22:31 44.51505 150.40715 35861 ft 399 kts 232°
2026-05-07 22:31 44.47670 150.35139 35856 ft 399 kts 232°
2026-05-07 22:32 44.43837 150.29575 35876 ft 402 kts 231°
2026-05-07 22:32 44.39975 150.23981 35874 ft 400 kts 231°
2026-05-07 22:33 44.36117 150.18405 35868 ft 400 kts 231°
2026-05-07 22:33 44.32272 150.12857 35867 ft 403 kts 231°
2026-05-07 22:34 44.28365 150.07234 35853 ft 400 kts 231°
2026-05-07 22:34 44.24489 150.01663 35859 ft 402 kts 231°
2026-05-07 22:35 44.20634 149.96135 35859 ft 403 kts 231°
2026-05-07 22:35 44.16722 149.90538 35847 ft 403 kts 231°
2026-05-07 22:36 44.12835 149.84987 35852 ft 403 kts 231°
2026-05-07 22:36 44.08911 149.79395 35845 ft 403 kts 231°
2026-05-07 22:37 44.05004 149.73837 35843 ft 403 kts 231°
2026-05-07 22:37 44.01082 149.68269 35838 ft 404 kts 230°
2026-05-07 22:38 43.97166 149.62723 35832 ft 404 kts 231°
2026-05-07 22:38 43.93236 149.57165 35830 ft 405 kts 231°
2026-05-07 22:39 43.89293 149.51602 35840 ft 406 kts 230°
2026-05-07 22:39 43.85363 149.46068 35846 ft 406 kts 231°
2026-05-07 22:40 43.81390 149.40483 35839 ft 409 kts 231°
2026-05-07 22:40 43.77433 149.34935 35843 ft 404 kts 230°
2026-05-07 22:41 43.73513 149.29448 35860 ft 408 kts 230°
2026-05-07 22:41 43.69540 149.23898 35860 ft 407 kts 230°
2026-05-07 22:42 43.65557 149.18346 35853 ft 409 kts 230°
2026-05-07 22:42 43.61578 149.12807 35848 ft 409 kts 230°
2026-05-07 22:43 43.57556 149.07224 35852 ft 411 kts 230°
2026-05-07 22:43 43.53561 149.01688 35859 ft 408 kts 230°
2026-05-07 22:44 43.49560 148.96153 35847 ft 411 kts 230°
2026-05-07 22:44 43.45530 148.90591 35843 ft 410 kts 230°
2026-05-07 22:45 43.41491 148.85025 35842 ft 413 kts 229°
2026-05-07 22:45 43.37477 148.79509 35837 ft 412 kts 230°
2026-05-07 22:46 43.33407 148.73924 35839 ft 414 kts 230°
2026-05-07 22:46 43.29340 148.68355 35839 ft 413 kts 229°
2026-05-07 22:47 43.25283 148.62810 35832 ft 415 kts 229°
2026-05-07 22:47 43.21202 148.57245 35838 ft 414 kts 229°
2026-05-07 22:48 43.17140 148.51717 35826 ft 415 kts 229°
2026-05-07 22:48 43.13066 148.46182 35826 ft 415 kts 229°
2026-05-07 22:49 43.08976 148.40637 35822 ft 418 kts 229°
2026-05-07 22:49 43.04870 148.35082 35813 ft 414 kts 229°
2026-05-07 22:50 43.00781 148.29561 35830 ft 416 kts 229°
2026-05-07 22:50 42.96672 148.24023 35837 ft 415 kts 229°
2026-05-07 22:51 42.92553 148.18483 35842 ft 417 kts 228°
2026-05-07 22:51 42.88461 148.12991 35849 ft 417 kts 228°
2026-05-07 22:52 42.84332 148.07459 35848 ft 418 kts 229°
2026-05-07 22:52 42.80176 148.01903 35835 ft 418 kts 228°
2026-05-07 22:53 42.76041 147.96385 35819 ft 418 kts 228°
2026-05-07 22:53 42.71888 147.90854 35830 ft 420 kts 228°
2026-05-07 22:54 42.67807 147.85431 35824 ft 418 kts 228°
2026-05-07 22:54 42.63640 147.79901 35823 ft 419 kts 228°
2026-05-07 22:55 42.59465 147.74374 35823 ft 420 kts 228°
2026-05-07 22:55 42.55295 147.68866 35823 ft 419 kts 228°
2026-05-07 22:56 42.51119 147.63359 35819 ft 422 kts 228°
2026-05-07 22:56 42.46915 147.57826 35818 ft 421 kts 228°
2026-05-07 22:57 42.42731 147.52330 35819 ft 422 kts 228°
2026-05-07 22:57 42.38546 147.46843 35820 ft 423 kts 228°
2026-05-07 22:58 42.34329 147.41316 35817 ft 423 kts 228°
2026-05-07 22:58 42.30114 147.35800 35816 ft 423 kts 227°
2026-05-07 22:59 42.25912 147.30313 35830 ft 424 kts 227°
2026-05-07 22:59 42.21656 147.24767 35829 ft 425 kts 227°
2026-05-07 23:00 42.17422 147.19261 35824 ft 424 kts 227°
2026-05-07 23:00 42.13169 147.13739 35828 ft 426 kts 227°
2026-05-07 23:01 42.08906 147.08217 35823 ft 425 kts 227°
2026-05-07 23:01 42.04644 147.02705 35822 ft 427 kts 227°
2026-05-07 23:02 42.00369 146.97189 35825 ft 427 kts 227°
2026-05-07 23:02 41.96124 146.91722 35821 ft 426 kts 226°
2026-05-07 23:03 41.91864 146.86247 35817 ft 426 kts 226°
2026-05-07 23:03 41.87569 146.80725 35815 ft 428 kts 226°
2026-05-07 23:04 41.83282 146.75226 35806 ft 426 kts 227°
2026-05-07 23:04 41.79014 146.69757 35811 ft 427 kts 226°
2026-05-07 23:05 41.74748 146.64305 35808 ft 427 kts 226°
2026-05-07 23:05 41.70436 146.58804 35817 ft 427 kts 226°
2026-05-07 23:06 41.66130 146.53320 35817 ft 428 kts 226°
2026-05-07 23:06 41.61851 146.47884 35814 ft 428 kts 226°
2026-05-07 23:07 41.57534 146.42407 35813 ft 428 kts 226°
2026-05-07 23:07 41.53229 146.36958 35815 ft 430 kts 226°
2026-05-07 23:08 41.48900 146.31488 35825 ft 428 kts 226°
2026-05-07 23:08 41.44572 146.26030 35827 ft 428 kts 225°
2026-05-07 23:09 41.40257 146.20598 35827 ft 429 kts 226°
2026-05-07 23:09 41.35917 146.15147 35823 ft 430 kts 226°
2026-05-07 23:10 41.31563 146.09688 35828 ft 431 kts 226°
2026-05-07 23:10 41.27228 146.04265 35824 ft 431 kts 226°
2026-05-07 23:11 41.22839 145.98782 35824 ft 432 kts 225°
2026-05-07 23:11 41.18484 145.93353 35824 ft 432 kts 225°
2026-05-07 23:12 41.14115 145.87918 35822 ft 432 kts 225°
2026-05-07 23:12 41.09745 145.82491 35819 ft 432 kts 225°
2026-05-07 23:13 41.05368 145.77066 35819 ft 433 kts 225°
2026-05-07 23:13 41.00991 145.71652 35818 ft 432 kts 225°
2026-05-07 23:14 40.96572 145.66196 35818 ft 433 kts 225°
2026-05-07 23:14 40.92194 145.60802 35817 ft 434 kts 225°
2026-05-07 23:15 40.87784 145.55377 35826 ft 434 kts 225°
2026-05-07 23:15 40.83370 145.49959 35823 ft 434 kts 225°
2026-05-07 23:16 40.78973 145.44571 35821 ft 433 kts 225°
2026-05-07 23:16 40.74554 145.39166 35816 ft 434 kts 225°
2026-05-07 23:17 40.70124 145.33758 35825 ft 435 kts 225°
2026-05-07 23:17 40.65724 145.28398 35817 ft 434 kts 225°
2026-05-07 23:18 40.61263 145.22974 35815 ft 435 kts 225°
2026-05-07 23:18 40.56851 145.17618 35821 ft 435 kts 225°
2026-05-07 23:19 40.52412 145.12241 35823 ft 436 kts 225°
2026-05-07 23:19 40.47971 145.06871 35824 ft 437 kts 225°
2026-05-07 23:20 40.43511 145.01488 35826 ft 437 kts 225°
2026-05-07 23:20 40.39048 144.96112 35825 ft 436 kts 225°
2026-05-07 23:21 40.34570 144.90726 35825 ft 438 kts 224°
2026-05-07 23:21 40.30093 144.85352 35822 ft 436 kts 224°
2026-05-07 23:22 40.25612 144.79984 35822 ft 437 kts 225°
2026-05-07 23:22 40.21153 144.74651 35822 ft 438 kts 225°
2026-05-07 23:23 40.16644 144.69269 35821 ft 438 kts 224°
2026-05-07 23:23 40.12157 144.63924 35820 ft 439 kts 224°
2026-05-07 23:24 40.07631 144.58542 35818 ft 439 kts 224°
2026-05-07 23:24 40.03130 144.53198 35817 ft 440 kts 224°
2026-05-07 23:25 39.98630 144.47868 35816 ft 441 kts 224°
2026-05-07 23:25 39.94097 144.42508 35815 ft 439 kts 224°
2026-05-07 23:26 39.89585 144.37181 35814 ft 441 kts 224°
2026-05-07 23:26 39.85060 144.31851 35832 ft 439 kts 224°
2026-05-07 23:27 39.78277 144.23879 35827 ft 439 kts 224°
2026-05-07 23:27 39.73739 144.18556 35827 ft 439 kts 224°
2026-05-07 23:28 39.69204 144.13249 35823 ft 439 kts 224°
2026-05-07 23:28 39.64669 144.07951 35824 ft 441 kts 224°
2026-05-07 23:29 39.60135 144.02663 35820 ft 442 kts 224°
2026-05-07 23:29 39.55574 143.97354 35818 ft 441 kts 224°
2026-05-07 23:30 39.51006 143.92046 35812 ft 441 kts 224°
2026-05-07 23:30 39.46453 143.86766 35806 ft 442 kts 224°
2026-05-07 23:31 39.41883 143.81476 35804 ft 441 kts 224°
2026-05-07 23:31 39.37324 143.76207 35802 ft 441 kts 224°
2026-05-07 23:32 39.32759 143.70943 35801 ft 441 kts 224°
2026-05-07 23:32 39.28193 143.65685 35800 ft 440 kts 224°
2026-05-07 23:33 39.23630 143.60442 35807 ft 442 kts 224°
2026-05-07 23:33 39.19045 143.55182 35812 ft 441 kts 224°
2026-05-07 23:34 39.14473 143.49948 35810 ft 441 kts 224°
2026-05-07 23:34 39.09912 143.44734 35804 ft 442 kts 224°
2026-05-07 23:35 39.05312 143.39485 35804 ft 442 kts 224°
2026-05-07 23:35 39.00707 143.34241 35806 ft 442 kts 223°
2026-05-07 23:36 38.96122 143.29030 35810 ft 443 kts 223°
2026-05-07 23:36 38.91211 143.24304 35803 ft 445 kts 211°
2026-05-07 23:37 38.85295 143.21729 35817 ft 457 kts 195°
2026-05-07 23:37 38.79091 143.20273 35813 ft 457 kts 194°
2026-05-07 23:38 38.72822 143.18852 35810 ft 458 kts 194°
2026-05-07 23:38 38.66541 143.17442 35807 ft 459 kts 194°
2026-05-07 23:39 38.60241 143.16037 35808 ft 459 kts 194°
2026-05-07 23:39 38.53970 143.14645 35807 ft 458 kts 194°
2026-05-07 23:40 38.47697 143.13255 35805 ft 460 kts 194°
2026-05-07 23:40 38.41427 143.11871 35804 ft 457 kts 194°
2026-05-07 23:41 38.35148 143.10486 35807 ft 460 kts 194°
2026-05-07 23:41 38.28846 143.09099 35801 ft 460 kts 194°
2026-05-07 23:42 38.22526 143.07712 35800 ft 461 kts 194°
2026-05-07 23:42 38.16250 143.06335 35804 ft 461 kts 194°
2026-05-07 23:43 38.09967 143.04961 35801 ft 461 kts 194°
2026-05-07 23:43 38.03650 143.03580 35804 ft 462 kts 194°
2026-05-07 23:44 37.97321 143.02200 35794 ft 463 kts 194°
2026-05-07 23:44 37.91110 143.00848 35786 ft 463 kts 194°
2026-05-07 23:45 37.84827 142.99483 35787 ft 462 kts 194°
2026-05-07 23:45 37.78581 142.98128 35791 ft 461 kts 194°
2026-05-07 23:46 37.72293 142.96765 35795 ft 463 kts 194°
2026-05-07 23:46 37.65999 142.95404 35801 ft 463 kts 194°
2026-05-07 23:47 37.59690 142.94043 35798 ft 463 kts 194°
2026-05-07 23:47 37.53381 142.92683 35818 ft 464 kts 194°
2026-05-07 23:48 37.47098 142.91332 35816 ft 465 kts 193°
2026-05-07 23:48 37.40837 142.89987 35812 ft 463 kts 194°
2026-05-07 23:49 37.34540 142.88638 35817 ft 463 kts 193°
2026-05-07 23:49 37.28242 142.87289 35821 ft 464 kts 193°
2026-05-07 23:50 37.21917 142.85942 35817 ft 464 kts 193°
2026-05-07 23:50 37.15613 142.84602 35816 ft 464 kts 193°
2026-05-07 23:51 37.09883 142.82469 35811 ft 455 kts 208°
2026-05-07 23:51 37.05150 142.79263 35818 ft 456 kts 212°
2026-05-07 23:52 36.99711 142.75420 35815 ft 457 kts 212°
2026-05-07 23:52 36.94344 142.71634 35814 ft 456 kts 212°
2026-05-07 23:53 36.89062 142.67917 35822 ft 457 kts 212°
2026-05-07 23:54 36.79001 142.60854 35820 ft 456 kts 212°
2026-05-07 23:54 36.73895 142.57277 35822 ft 457 kts 212°
2026-05-07 23:55 36.68399 142.53435 35820 ft 456 kts 212°
2026-05-07 23:55 36.62889 142.49588 35820 ft 457 kts 212°
2026-05-07 23:56 36.57344 142.45725 35823 ft 458 kts 212°
2026-05-07 23:56 36.51761 142.41840 35818 ft 459 kts 212°
2026-05-07 23:57 36.46209 142.37984 35821 ft 459 kts 212°
2026-05-07 23:57 36.40609 142.34100 35826 ft 461 kts 212°
2026-05-07 23:58 36.37862 142.32199 35713 ft 454 kts 212°
2026-05-07 23:58 36.35115 142.30299 34903 ft 455 kts 212°
2026-05-07 23:58 36.32344 142.28383 33761 ft 460 kts 212°
2026-05-07 23:58 36.29561 142.26459 32889 ft 460 kts 212°
2026-05-07 23:59 36.26754 142.24522 32033 ft 460 kts 212°
2026-05-07 23:59 36.23992 142.22618 31124 ft 461 kts 212°
2026-05-07 23:59 36.21204 142.20699 30283 ft 460 kts 212°
2026-05-07 23:59 36.18436 142.18794 29800 ft 452 kts 212°
2026-05-08 00:00 36.15739 142.16942 29296 ft 445 kts 212°
2026-05-08 00:00 36.13048 142.15093 28758 ft 439 kts 212°
2026-05-08 00:00 36.10460 142.13316 28206 ft 434 kts 212°
2026-05-08 00:00 36.07874 142.11542 27653 ft 430 kts 212°
2026-05-08 00:01 36.05286 142.09763 27084 ft 426 kts 212°
2026-05-08 00:01 36.02716 142.07983 26502 ft 422 kts 212°
2026-05-08 00:01 36.00194 142.06238 25924 ft 418 kts 212°
2026-05-08 00:01 35.97669 142.04491 25337 ft 414 kts 212°
2026-05-08 00:02 35.95179 142.02769 24758 ft 411 kts 212°
2026-05-08 00:02 35.92705 142.01062 24194 ft 407 kts 212°
2026-05-08 00:02 35.90268 141.99381 23627 ft 403 kts 212°
2026-05-08 00:02 35.87824 141.97696 23069 ft 399 kts 212°
2026-05-08 00:03 35.85447 141.96046 22502 ft 395 kts 213°
2026-05-08 00:03 35.83234 141.94041 21919 ft 389 kts 224°
2026-05-08 00:03 35.81451 141.91655 21360 ft 384 kts 233°
2026-05-08 00:03 35.80058 141.88855 20784 ft 381 kts 244°
2026-05-08 00:04 35.79168 141.85834 20211 ft 380 kts 254°
2026-05-08 00:04 35.78650 141.82657 19625 ft 379 kts 257°
2026-05-08 00:04 35.78218 141.79483 19042 ft 377 kts 258°
2026-05-08 00:04 35.77831 141.76349 18470 ft 375 kts 261°
2026-05-08 00:05 35.77666 141.73126 17896 ft 373 kts 264°
2026-05-08 00:05 35.77578 141.69959 17319 ft 371 kts 265°
2026-05-08 00:05 35.77502 141.66826 16772 ft 368 kts 265°
2026-05-08 00:05 35.77431 141.63710 16201 ft 366 kts 265°
2026-05-08 00:06 35.77362 141.60620 15631 ft 364 kts 265°
2026-05-08 00:06 35.77293 141.57512 15050 ft 361 kts 265°
2026-05-08 00:06 35.77227 141.54511 14497 ft 358 kts 265°
2026-05-08 00:06 35.77170 141.51895 14011 ft 356 kts 265°
2026-05-08 00:07 35.77107 141.49019 13475 ft 353 kts 265°
2026-05-08 00:07 35.77040 141.45999 12900 ft 350 kts 265°
2026-05-08 00:07 35.76972 141.43016 12313 ft 348 kts 265°
2026-05-08 00:07 35.76908 141.40243 11761 ft 346 kts 265°
2026-05-08 00:08 35.76844 141.37442 11227 ft 343 kts 265°
2026-05-08 00:08 35.76784 141.34863 10747 ft 340 kts 265°
2026-05-08 00:08 35.76718 141.32031 10563 ft 326 kts 265°
2026-05-08 00:08 35.76656 141.29335 10496 ft 310 kts 264°
2026-05-08 00:09 35.76595 141.26758 10428 ft 298 kts 264°
2026-05-08 00:09 35.76528 141.24153 10443 ft 318 kts 265°
2026-05-08 00:09 35.76459 141.21407 10450 ft 324 kts 265°
2026-05-08 00:09 35.76400 141.18630 10457 ft 324 kts 265°
2026-05-08 00:10 35.76373 141.15836 10456 ft 325 kts 266°
2026-05-08 00:10 35.76346 141.13083 10465 ft 326 kts 266°
2026-05-08 00:10 35.76316 141.10312 10471 ft 324 kts 266°
2026-05-08 00:10 35.76284 141.07544 10469 ft 326 kts 266°
2026-05-08 00:11 35.76250 141.04768 10473 ft 324 kts 265°
2026-05-08 00:11 35.76215 141.02031 10471 ft 324 kts 266°
2026-05-08 00:11 35.76179 140.99242 10456 ft 317 kts 266°
2026-05-08 00:11 35.76176 140.96611 10445 ft 303 kts 271°
2026-05-08 00:12 35.76541 140.94116 10442 ft 294 kts 278°
2026-05-08 00:12 35.77043 140.91753 10413 ft 280 kts 279°
2026-05-08 00:12 35.77539 140.89497 10310 ft 269 kts 279°
2026-05-08 00:12 35.78018 140.87305 10186 ft 258 kts 279°
2026-05-08 00:13 35.78466 140.85239 10077 ft 248 kts 279°
2026-05-08 00:13 35.78910 140.83182 9777 ft 247 kts 279°
2026-05-08 00:13 35.79321 140.81277 9428 ft 248 kts 279°
2026-05-08 00:13 35.79768 140.79207 9068 ft 249 kts 279°
2026-05-08 00:14 35.80210 140.77159 8721 ft 249 kts 280°
2026-05-08 00:14 35.80651 140.75117 8381 ft 248 kts 280°
2026-05-08 00:14 35.81062 140.73215 8090 ft 247 kts 280°
2026-05-08 00:14 35.81495 140.71205 7767 ft 247 kts 280°
2026-05-08 00:15 35.81949 140.69095 7426 ft 247 kts 280°
2026-05-08 00:15 35.82387 140.67061 7095 ft 246 kts 280°
2026-05-08 00:15 35.82827 140.65016 6772 ft 246 kts 280°
2026-05-08 00:15 35.83258 140.63007 6470 ft 245 kts 280°
2026-05-08 00:16 35.83689 140.61006 6155 ft 245 kts 282°
2026-05-08 00:16 35.84457 140.59155 5993 ft 252 kts 300°
2026-05-08 00:16 35.85388 140.57663 5983 ft 256 kts 303°
2026-05-08 00:16 35.86572 140.55864 5972 ft 256 kts 304°
2026-05-08 00:17 35.87706 140.54147 5988 ft 257 kts 304°
2026-05-08 00:17 35.88826 140.52447 5984 ft 257 kts 304°
2026-05-08 00:17 35.89961 140.50722 5975 ft 256 kts 304°
2026-05-08 00:17 35.91058 140.49051 5968 ft 257 kts 304°
2026-05-08 00:18 35.92131 140.47418 5969 ft 257 kts 304°
2026-05-08 00:18 35.93215 140.45766 5973 ft 256 kts 304°
2026-05-08 00:18 35.94328 140.44069 5976 ft 258 kts 304°
2026-05-08 00:18 35.95414 140.42419 5969 ft 259 kts 307°
2026-05-08 00:19 35.96832 140.41013 5965 ft 266 kts 327°
2026-05-08 00:19 35.98460 140.40010 5968 ft 268 kts 331°
2026-05-08 00:19 36.00133 140.39058 5971 ft 268 kts 332°
2026-05-08 00:19 36.01819 140.38097 5968 ft 267 kts 332°
2026-05-08 00:20 36.03507 140.37126 5974 ft 267 kts 332°
2026-05-08 00:20 36.05195 140.36153 5969 ft 267 kts 332°
2026-05-08 00:20 36.06803 140.35225 5971 ft 267 kts 332°
2026-05-08 00:20 36.08386 140.34311 5970 ft 266 kts 331°
2026-05-08 00:21 36.10020 140.33321 5960 ft 264 kts 323°
2026-05-08 00:21 36.10472 140.32916 5961 ft 261 kts 315°
2026-05-08 00:21 36.11476 140.31267 5957 ft 255 kts 289°
2026-05-08 00:21 36.11869 140.29182 5834 ft 252 kts 272°
2026-05-08 00:22 36.11958 140.27065 5685 ft 249 kts 268°
2026-05-08 00:22 36.11963 140.24982 5552 ft 251 kts 267°
2026-05-08 00:22 36.11947 140.22806 5407 ft 253 kts 267°
2026-05-08 00:22 36.11678 140.20691 5267 ft 250 kts 246°
2026-05-08 00:23 36.10707 140.18982 5130 ft 252 kts 221°
2026-05-08 00:23 36.09192 140.17990 5066 ft 254 kts 194°
2026-05-08 00:23 36.07458 140.17746 5060 ft 259 kts 183°
2026-05-08 00:23 36.05674 140.17877 5040 ft 260 kts 166°
2026-05-08 00:24 36.03984 140.18694 5028 ft 262 kts 157°
2026-05-08 00:24 36.02352 140.19632 5008 ft 251 kts 156°
2026-05-08 00:24 36.00812 140.20502 4970 ft 238 kts 158°
2026-05-08 00:24 35.99339 140.21335 4924 ft 226 kts 157°
2026-05-08 00:25 35.97919 140.22195 4637 ft 226 kts 155°
2026-05-08 00:25 35.96537 140.23116 4361 ft 227 kts 153°
2026-05-08 00:25 35.95219 140.24036 4088 ft 208 kts 152°
2026-05-08 00:25 35.94001 140.24899 3836 ft 194 kts 152°
2026-05-08 00:26 35.92887 140.25696 3601 ft 182 kts 152°
2026-05-08 00:26 35.91819 140.26463 3369 ft 170 kts 151°
2026-05-08 00:26 35.90827 140.27181 3153 ft 161 kts 150°
2026-05-08 00:26 35.89884 140.27864 2940 ft 151 kts 150°
2026-05-08 00:27 35.89000 140.28494 2755 ft 146 kts 150°
2026-05-08 00:27 35.88135 140.29117 2562 ft 145 kts 150°
2026-05-08 00:27 35.87266 140.29747 2370 ft 144 kts 150°
2026-05-08 00:27 35.86401 140.30373 2182 ft 146 kts 150°
2026-05-08 00:28 35.85557 140.30983 1990 ft 147 kts 149°
2026-05-08 00:28 35.84679 140.31618 1798 ft 156 kts 149°
2026-05-08 00:28 35.83741 140.32297 1586 ft 159 kts 150°
2026-05-08 00:28 35.82783 140.32988 1363 ft 160 kts 151°
2026-05-08 00:29 35.81940 140.33595 1169 ft 152 kts 151°
2026-05-08 00:29 35.81028 140.34253 962 ft 149 kts 152°
2026-05-08 00:29 35.80131 140.34898 781 ft 148 kts 153°
2026-05-08 00:29 35.79252 140.35532 575 ft 146 kts 152°
2026-05-08 00:30 35.78379 140.36159 386 ft 147 kts 152°
2026-05-08 00:30 35.77495 140.36801 201 ft 150 kts 152°
2026-05-08 00:30 35.76647 140.37411 134 ft 140 kts 152°
2026-05-08 00:30 35.75959 140.37889 141 ft 90 kts 148°
2026-05-08 00:31 35.75613 140.38158 144 ft 50 kts 139°
2026-05-08 00:31 35.75542 140.38260 144 ft 3 kts 120°
2026-05-08 00:31 35.75527 140.38292 144 ft 4 kts 121°
2026-05-08 00:31 35.75509 140.38330 144 ft 5 kts 121°
2026-05-08 00:32 35.75488 140.38371 144 ft 6 kts 121°
2026-05-08 00:32 35.75467 140.38414 144 ft 7 kts 121°
2026-05-08 00:32 35.75450 140.38512 144 ft 14 kts 76°
2026-05-08 00:32 35.75510 140.38591 142 ft 13 kts 11°
2026-05-08 00:33 35.75590 140.38548 142 ft 13 kts 329°
2026-05-08 00:33 35.75670 140.38489 141 ft 13 kts 328°
2026-05-08 00:33 35.75746 140.38477 141 ft 10 kts 57°
2026-05-08 00:33 35.75755 140.38513 141 ft 1 kts 79°
2026-05-08 00:34 35.75748 140.38539 141 ft 5 kts 111°
2026-05-08 00:34 35.75728 140.38576 141 ft 3 kts 114°
2026-05-08 00:34 35.75736 140.38602 141 ft 3 kts 44°
2026-05-08 00:34 35.75760 140.38620 141 ft 4 kts 26°
2026-05-08 00:35 35.75790 140.38632 141 ft 4 kts 15°
2026-05-08 00:35 35.75818 140.38641 141 ft 3 kts 14°
2026-05-08 00:35 35.75825 140.38643 141 ft 0 kts 14°